                ,  0.290,  0.386,  0.483,  0.580,  0.676,  0.773,  0.869,  0.966,  1.063,  1.159,  1.256,  1.352,  1.449,  1.545,  1.642,  1.739,  1.835,  1.932,  2.028,  2.125,  2.222,  2.318,  2.415,  2.511,  2.608,  2.705,  2.801,  2.898,  2.994,  3.091,  3.188,  3.284,  3.381,  3.477,  3.574,  3.671,  3.767,  3.864,  3.960,  4.057,  4.153,  4.250,  4.347,  4.443,  4.540,  4.636,  4.733,  4.830,  4.926,  5.023,  5.119,  5.216,  5.313,  5.409,  5.506,  5.602,  5.699,  5.796
2000/11/21 00:00,  999.0,  999.0,  999.0,  999.0,  999.0,  999.0,  999.0,  999.0,  999.0,  999.0,  999.0,  999.0,  999.0,   20.6,   20.5,   21.4,   21.1,   21.9,  999.0,  999.0,  999.0,   26.9,   28.1,   29.0,   30.3,   31.4,   32.2,  999.0,   34.7,  999.0,   37.3,   38.9,  999.0,  999.0,  999.0,   42.0,  999.0,  999.0,   40.6,  999.0,   41.3,  999.0,   41.4,   41.6,  999.0,   41.2,  999.0,  999.0,  999.0,  999.0,   41.8,  999.0,  999.0,  999.0,   42.2,  999.0,   40.8,  999.0
2000/11/21 00:10,  999.0,  999.0,  999.0,    1.1,    1.5,    3.1,    3.9,    3.8,  999.0,  999.0,  999.0,  999.0,  999.0,   20.9,   20.0,   21.7,   21.5,  999.0,   21.4,  999.0,   21.4,  999.0,  999.0,  999.0,  999.0,  999.0,  999.0,  999.0,  999.0,  999.0,  999.0,  999.0,  999.0,  999.0,  999.0,  999.0,  999.0,  999.0,  999.0,  999.0,  999.0,  999.0,  999.0,  999.0,  999.0,  999.0,  999.0,  999.0,  999.0,  999.0,  999.0,  999.0,  999.0,  999.0,  999.0,  999.0,  999.0,  999.0
2000/11/21 00:20,  999.0,  999.0,  999.0,    0.1,    1.6,    3.2,    5.6,    5.4,    4.6,  999.0,    6.9,    8.4,  999.0,  999.0,  999.0,  999.0,  999.0,  999.0,  999.0,  999.0,  999.0,  999.0,  999.0,  999.0,  999.0,  999.0,  999.0,  999.0,  999.0,  999.0,  999.0,  999.0,  999.0,  999.0,  999.0,  999.0,  999.0,  999.0,  999.0,  999.0,  999.0,  999.0,  999.0,  999.0,  999.0,  999.0,  999.0,  999.0,  999.0,  999.0,  999.0,  999.0,  999.0,  999.0,  999.0,  999.0,  999.0,  999.0
2000/11/21 00:30,  999.0,  999.0,    1.2,   -0.1,    0.9,    2.5,    3.5,    4.0,    4.3,    1.8,    6.8,    6.9,  999.0,   21.0,   20.5,  999.0,   21.5,   20.8,  999.0,  999.0,  999.0,  999.0,  999.0,  999.0,  999.0,  999.0,  999.0,  999.0,  999.0,  999.0,  999.0,  999.0,  999.0,  999.0,  999.0,  999.0,  999.0,  999.0,  999.0,  999.0,  999.0,  999.0,  999.0,  999.0,  999.0,  999.0,  999.0,  999.0,  999.0,  999.0,  999.0,  999.0,  999.0,  999.0,  999.0,  999.0,  999.0,  999.0
2000/11/21 00:40,  999.0,  999.0,  999.0,   -0.0,    0.2,    2.5,    2.3,   -3.0,   -0.0,  999.0,    5.5,  999.0,   12.2,   12.5,  999.0,   13.6,   11.0,   17.2,  999.0,   21.4,  999.0,   21.8,   20.7,  999.0,  999.0,  999.0,  999.0,  999.0,  999.0,  999.0,  999.0,  999.0,  999.0,  999.0,  999.0,  999.0,  999.0,  999.0,  999.0,  999.0,  999.0,  999.0,  999.0,  999.0,  999.0,  999.0,  999.0,  999.0,  999.0,  999.0,  999.0,  999.0,  999.0,  999.0,  999.0,  999.0,  999.0,  999.0
2000/11/21 00:50,  999.0,  999.0,  999.0,  999.0,    1.6,    4.2,    4.0,    4.1,    3.8,    5.3,    7.5,  999.0,   21.0,   21.2,   20.9,   20.6,   21.9,   21.5,   24.4,   23.6,   25.0,   25.3,   24.6,   25.4,   25.8,  999.0,   27.0,   27.9,   28.0,   29.0,   29.0,   29.8,   29.9,  999.0,   31.1,   31.9,  999.0,  999.0,   34.2,   34.0,   34.0,  999.0,   35.7,   35.8,   36.0,   36.6,   38.1,   37.7,   38.0,   39.7,  999.0,   37.8,   38.6,   40.4,   40.5,   41.8,  999.0,   41.6
2000/11/21 01:00,  999.0,    0.9,    2.2,   -0.9,    3.2,    2.8,    3.0,    4.0,    5.2,    8.8,  999.0,    3.8,   16.8,   21.4,   22.1,   21.1,   20.6,   21.4,  999.0,   21.7,   21.8,  999.0,   22.6,   23.5,   24.2,   24.9,  999.0,   25.0,   25.7,  999.0,  999.0,   27.6,   28.1,  999.0,   29.2,   29.7,   29.7,   31.5,   30.7,   31.8,   31.8,  999.0,   33.4,   34.3,   33.9,   34.8,   35.3,   36.1,   36.3,   36.4,   37.0,   38.9,   38.5,   38.3,   38.4,   40.6,   41.1,   41.1
2000/11/21 01:10,  999.0,   -3.5,  999.0,   11.2,    3.2,    4.2,  999.0,  999.0,    7.3,    6.8,  999.0,   14.5,   21.0,   21.1,  999.0,   21.5,   21.1,   21.2,  999.0,  999.0,  999.0,  999.0,  999.0,  999.0,  999.0,  999.0,  999.0,  999.0,  999.0,  999.0,  999.0,  999.0,  999.0,  999.0,  999.0,  999.0,  999.0,  999.0,  999.0,  999.0,  999.0,  999.0,  999.0,  999.0,  999.0,  999.0,  999.0,  999.0,  999.0,  999.0,  999.0,  999.0,  999.0,  999.0,  999.0,  999.0,  999.0,  999.0
2000/11/21 01:20,  999.0,  999.0,  999.0,   -0.6,    2.2,    1.8,    2.3,    4.5,    4.9,  999.0,  999.0,  999.0,  999.0,   20.6,  999.0,   21.0,    2.9,  999.0,  999.0,  999.0,  999.0,  999.0,  999.0,  999.0,  999.0,  999.0,  999.0,  999.0,  999.0,  999.0,  999.0,  999.0,  999.0,  999.0,  999.0,  999.0,  999.0,  999.0,  999.0,  999.0,  999.0,  999.0,  999.0,  999.0,  999.0,  999.0,  999.0,  999.0,  999.0,  999.0,  999.0,  999.0,  999.0,  999.0,  999.0,  999.0,  999.0,  999.0
2000/11/21 01:30,  999.0,  999.0,   -2.3,   -0.3,    3.8,    4.6,    4.3,    4.7,    4.8,  999.0,  999.0,  999.0,   21.0,   21.2,  999.0,   21.6,   21.0,  999.0,   21.3,  999.0,  999.0,  999.0,  999.0,  999.0,  999.0,  999.0,  999.0,  999.0,  999.0,  999.0,  999.0,  999.0,  999.0,  999.0,  999.0,  999.0,  999.0,  999.0,  999.0,  999.0,  999.0,  999.0,  999.0,  999.0,  999.0,  999.0,  999.0,  999.0,  999.0,  999.0,  999.0,  999.0,  999.0,  999.0,  999.0,  999.0,  999.0,  999.0
2000/11/21 01:40,  999.0,  999.0,  999.0,    0.9,    2.2,    4.5,    5.6,    5.1,    6.1,  999.0,   10.3,   10.2,  999.0,  999.0,  999.0,  999.0,  999.0,  999.0,  999.0,  999.0,  999.0,  999.0,  999.0,  999.0,   18.0,   17.0,  999.0,   15.9,   14.9,   15.2,  999.0,  999.0,  999.0,   12.7,   12.7,  999.0,  999.0,  999.0,   10.7,  999.0,    9.0,  999.0,    8.1,    7.9,  999.0,  999.0,  999.0,  999.0,    5.2,  999.0,  999.0,    3.6,  999.0,  999.0,    2.3,  999.0,    1.1,  999.0
2000/11/21 01:50,  999.0,  999.0,  999.0,    0.7,    2.7,    3.7,    5.3,    4.7,    4.3,    7.3,  999.0,    4.6,  999.0,  999.0,   10.8,   15.5,  999.0,    6.1,  999.0,   19.9,  999.0,   17.7,   16.7,   15.3,   14.6,  999.0,   12.3,   10.8,  999.0,    7.1,    9.0,  999.0,    3.3,  999.0,    4.7,    2.4,  999.0,    1.8,    1.4,    0.8,    0.5,    0.5,  999.0,  999.0,    0.1,    0.4,    0.6,    0.5,    0.3,    0.8,    0.5,    0.8,    0.9,    0.9,    0.9,    0.3,    1.2,    0.8
2000/11/21 02:00,  999.0,  999.0,  999.0,    0.1,    2.3,    2.7,    2.8,    4.8,    5.5,    9.7,    8.3,    7.2,  999.0,  999.0,  999.0,  999.0,  999.0,  999.0,   19.1,  999.0,  999.0,   16.8,   14.0,   15.2,  999.0,    9.5,  999.0,  999.0,    5.7,  999.0,    5.5,   11.2,  999.0,    6.5,  999.0,  999.0,    7.6,    0.5,    0.6,  999.0,    2.0,    2.2,    1.0,    2.4,    1.9,    0.9,    1.1,  999.0,    1.0,  999.0,    0.4,    0.7,    0.2,    0.8,   -0.3,    0.5,    1.2,    0.7
2000/11/21 02:10,  999.0,  999.0,   -1.2,    0.1,    2.6,    3.6,    4.5,    6.7,    8.4,  999.0,   16.5,   14.4,   11.0,    3.5,  999.0,   21.0,  999.0,  999.0,  999.0,   19.6,   18.1,   17.3,  999.0,   15.0,   14.7,   13.3,   12.3,   11.1,   10.1,    8.9,    8.0,    7.3,    6.1,    5.0,    3.6,    3.1,   -9.1,    1.6,    1.7,    1.2,  999.0,    0.6,  999.0,    0.8,    0.8,    1.5,  999.0,    1.4,    0.4,  999.0,  999.0,    0.6,    0.8,    0.5,  999.0,    0.4,    0.7,    1.0
2000/11/21 02:20,  999.0,   -2.1,  999.0,    0.4,    4.7,    4.8,    3.9,  999.0,  999.0,  999.0,  999.0,  999.0,  999.0,  999.0,  999.0,  999.0,  999.0,  999.0,   13.6,  999.0,   14.8,  999.0,   14.5,   12.2,   10.7,   10.8,  999.0,    8.2,    7.6,    7.7,    4.7,    3.1,    4.2,    1.7,  999.0,    0.8,    0.6,  999.0,    0.4,    0.7,  999.0,  999.0,    0.4,    0.6,  999.0,  999.0,    0.6,    1.5,    0.7,  999.0,  999.0,    0.6,    1.1,    0.9,    0.4,    0.6,    0.7,    0.7
2000/11/21 02:30,  999.0,   -0.5,   -0.5,   -1.6,    1.8,    2.7,    4.1,  999.0,  999.0,  999.0,  999.0,  999.0,  999.0,  999.0,  999.0,  999.0,  999.0,   12.0,   10.8,   12.4,  999.0,  999.0,   14.0,   13.6,   11.0,    9.2,    8.3,    7.6,    6.8,    4.4,    3.9,    2.4,  999.0,    0.9,  999.0,    1.1,    0.8,    0.5,    1.0,    0.5,  999.0,    0.7,  999.0,    0.8,  999.0,    1.0,    0.5,  999.0,   -0.0,    0.8,    1.2,    0.4,    1.5,    0.3,    0.8,  999.0,    0.5,  999.0
2000/11/21 02:40,  999.0,   -1.9,   -2.6,   -2.1,    1.5,    2.8,    3.9,  999.0,    5.3,    8.9,  999.0,  999.0,  999.0,  999.0,  999.0,  999.0,  999.0,  999.0,  999.0,  999.0,  999.0,  999.0,  999.0,   11.5,    9.0,    7.4,    7.1,    6.2,    2.8,  999.0,    0.5,    0.9,    0.4,    1.4,    0.7,    0.9,    0.8,    0.8,    1.1,    1.1,    0.8,    0.5,    1.0,    0.4,    0.3,  999.0,    0.7,  999.0,    1.0,    0.6,    1.4,  999.0,    1.4,  999.0,    1.1,  999.0,    0.9,    0.4
2000/11/21 02:50,  999.0,  999.0,   -1.2,   -0.2,    0.2,    1.6,    2.3,    3.0,    7.4,  999.0,  999.0,  999.0,  999.0,  999.0,  999.0,  999.0,   12.3,  999.0,  999.0,  999.0,  999.0,  999.0,   11.8,    9.8,    8.2,    7.3,  999.0,    3.0,    0.9,    0.8,  999.0,    0.9,  999.0,  999.0,    0.6,    0.1,    0.4,  999.0,    0.8,   -0.5,    0.1,    0.6,  999.0,    0.8,  999.0,  999.0,    1.0,    0.5,    0.8,    1.4,    1.0,  999.0,    0.5,    0.7,  999.0,    0.3,  999.0,    0.8
2000/11/21 03:00,  999.0,  999.0,   -1.4,   -1.0,    2.6,    2.7,    3.1,  999.0,    6.7,  999.0,  999.0,  999.0,    6.4,  999.0,  999.0,  999.0,  999.0,  999.0,  999.0,  999.0,  999.0,  999.0,  999.0,   10.1,    8.7,  999.0,    7.2,  999.0,  999.0,    2.2,  999.0,    1.2,  999.0,    0.6,    0.7,    0.9,    0.5,    0.7,    0.4,    0.8,    0.4,    1.1,    0.8,  999.0,  999.0,    1.1,    1.3,    0.5,    0.2,    0.8,    0.6,    0.8,    0.7,    0.0,    0.8,    0.3,    0.9,    0.6
2000/11/21 03:10,  999.0,  999.0,   -2.2,   -0.9,   -1.1,    1.1,    3.3,    2.3,  999.0,  999.0,  999.0,  999.0,  999.0,  999.0,  999.0,  999.0,  999.0,  999.0,  999.0,  999.0,  999.0,  999.0,   11.7,  999.0,    9.3,    7.2,    8.6,    4.4,    0.1,    0.2,    0.4,    1.7,   -0.0,    0.4,  999.0,    0.9,  999.0,  999.0,    1.5,    1.2,    0.8,    0.8,    0.8,    0.7,  999.0,    0.6,    1.2,    0.6,    1.0,    0.7,    0.2,    0.9,    0.7,  999.0,    0.2,    0.0,    0.9,    1.7
2000/11/21 03:20,  999.0,   -0.4,   -1.8,   -2.3,   -0.5,    2.7,    2.1,    4.5,  999.0,  999.0,  999.0,  999.0,  999.0,  999.0,  999.0,  999.0,  999.0,  999.0,  999.0,  999.0,  999.0,   10.5,    9.4,  999.0,  999.0,    3.7,  999.0,    1.2,  999.0,    0.4,    0.1,    0.9,  999.0,    0.9,    0.9,    1.2,    1.1,    1.4,    0.7,    1.0,  999.0,    0.5,  999.0,    0.7,    1.1,    0.7,    0.9,    1.0,    0.6,    0.3,    0.2,    0.7,    1.1,    0.4,    0.3,  999.0,  999.0,    1.1
2000/11/21 03:30,  999.0,   -2.0,   -2.6,   -0.7,    0.7,    2.0,    3.3,    3.5,  999.0,    9.4,    9.5,    9.5,    7.4,    7.3,  999.0,  999.0,  999.0,  999.0,  999.0,  999.0,  999.0,  999.0,  999.0,    6.5,    8.8,    3.7,  999.0,  999.0,    7.2,    3.3,  999.0,    2.0,    0.5,    1.4,    0.7,    0.3,    0.2,    0.7,  999.0,    1.0,   -0.3,    0.1,    0.3,    0.6,    0.8,    0.3,    0.7,    0.9,    0.3,    0.6,   -0.1,    0.4,    0.8,    0.8,    1.2,    0.6,    0.6,  999.0
2000/11/21 03:40,  999.0,   -1.4,   -1.6,   -1.0,    0.6,    2.5,    3.1,    4.4,    6.9,  999.0,  999.0,    9.1,  999.0,  999.0,  999.0,  999.0,  999.0,  999.0,  999.0,  999.0,   14.4,   11.5,   11.3,    9.6,    8.5,    9.3,    6.0,    6.1,    3.5,    2.8,   -0.1,    0.7,    1.1,    1.0,    0.7,    1.0,  999.0,    0.4,    0.9,    0.7,    0.8,    0.5,  999.0,    0.7,    0.4,    0.6,  999.0,    0.8,    1.4,    0.8,    1.2,  999.0,    0.0,    0.9,    0.2,    0.5,    0.4,    1.1
2000/11/21 03:50,  999.0,   -1.0,   -1.3,    0.3,    0.4,    1.5,    3.6,    4.1,  999.0,  999.0,  999.0,  999.0,  999.0,  999.0,  999.0,  999.0,  999.0,  999.0,  999.0,  999.0,  999.0,   15.3,   13.2,   10.5,   10.9,    9.2,    8.2,    4.1,    5.8,    4.9,  999.0,    2.2,  999.0,    1.5,    0.1,    0.9,    0.3,  999.0,    0.5,    0.3,    0.5,    0.6,    1.2,    1.0,    0.8,  999.0,    0.8,  999.0,    1.6,   -0.0,    1.4,  999.0,    0.6,    0.8,    0.5,    0.1,    0.8,    0.7
2000/11/21 04:00,  999.0,   -1.0,   -0.5,    0.1,    1.3,    2.0,    3.2,    4.7,  999.0,  999.0,    9.0,  999.0,    8.1,  999.0,  999.0,  999.0,  999.0,  999.0,  999.0,  999.0,  999.0,  999.0,  999.0,  999.0,  999.0,  999.0,   10.3,  999.0,  999.0,    8.5,  999.0,    3.8,    5.1,    1.8,    1.8,  999.0,  999.0,    1.3,    1.1,    1.0,    0.4,  999.0,    0.7,    0.4,    0.9,    0.4,    0.9,    1.3,    1.2,    0.4,    0.2,    0.6,    0.8,    0.6,    0.5,    1.2,    0.6,    0.7
2000/11/21 04:10,  999.0,  999.0,   -1.5,   -1.3,   -1.4,    0.5,    2.3,  999.0,  999.0,  999.0,  999.0,  999.0,  999.0,  999.0,  999.0,  999.0,  999.0,  999.0,  999.0,  999.0,  999.0,  999.0,  999.0,   12.1,  999.0,    9.7,    8.7,  999.0,    5.9,    6.2,    4.5,    3.0,  999.0,    2.0,    2.0,  999.0,  999.0,    0.5,    1.1,    0.6,    0.8,  999.0,  999.0,    0.7,    0.7,    0.9,    1.2,    0.4,  999.0,    0.9,    0.7,  999.0,  999.0,  999.0,    0.0,    0.8,    1.0,    0.7
2000/11/21 04:20,  999.0,  999.0,  999.0,  999.0,  999.0,    3.4,    5.7,    6.5,    7.7,  999.0,  999.0,  999.0,  999.0,  999.0,  999.0,  999.0,   19.6,   18.5,   17.6,   17.6,   17.9,   16.4,   17.5,   14.9,   13.1,   10.9,   11.3,  999.0,    9.8,    9.2,    8.1,    6.8,    6.5,    5.1,    3.9,    2.2,    1.3,    0.7,    1.2,    0.9,  999.0,    0.4,    0.6,    0.5,    0.6,    1.0,    0.1,    0.5,  999.0,    0.4,    0.3,    0.9,    1.0,    0.7,    0.6,    0.0,    0.8,    0.4
2000/11/21 04:30,  999.0,    1.9,    0.5,    1.1,  999.0,  999.0,  999.0,  999.0,  999.0,  999.0,  999.0,  999.0,  999.0,   22.0,  999.0,  999.0,   21.5,   21.5,  999.0,  999.0,  999.0,  999.0,  999.0,  999.0,  999.0,  999.0,  999.0,  999.0,  999.0,  999.0,  999.0,  999.0,  999.0,  999.0,  999.0,  999.0,  999.0,  999.0,  999.0,  999.0,  999.0,  999.0,  999.0,  999.0,  999.0,  999.0,  999.0,  999.0,  999.0,  999.0,  999.0,  999.0,  999.0,  999.0,  999.0,  999.0,  999.0,  999.0
2000/11/21 04:40,  999.0,  999.0,  999.0,  999.0,  999.0,   -0.7,    1.4,  999.0,  999.0,  999.0,  999.0,   21.9,   22.0,   21.5,   22.0,   22.4,   22.3,  999.0,  999.0,  999.0,  999.0,  999.0,  999.0,  999.0,  999.0,  999.0,  999.0,  999.0,  999.0,  999.0,  999.0,  999.0,  999.0,  999.0,  999.0,  999.0,  999.0,  999.0,  999.0,  999.0,  999.0,  999.0,  999.0,  999.0,  999.0,  999.0,  999.0,  999.0,  999.0,  999.0,  999.0,  999.0,  999.0,  999.0,  999.0,  999.0,  999.0,  999.0
2000/11/21 04:50,  999.0,  999.0,  999.0,  999.0,  999.0,  999.0,    3.3,    3.4,    4.8,    5.7,    4.7,    8.1,    5.2,    6.4,   10.9,    6.8,  999.0,   20.6,  999.0,  999.0,  999.0,  999.0,  999.0,   21.0,   20.8,  999.0,  999.0,  999.0,  999.0,  999.0,   21.4,  999.0,  999.0,  999.0,  999.0,  999.0,  999.0,  999.0,  999.0,  999.0,  999.0,  999.0,  999.0,  999.0,  999.0,  999.0,  999.0,  999.0,  999.0,  999.0,  999.0,  999.0,  999.0,  999.0,  999.0,  999.0,  999.0,  999.0
2000/11/21 05:00,  999.0,  999.0,  999.0,  999.0,  999.0,  999.0,    1.2,    2.3,    3.8,    3.5,    7.3,  999.0,    7.1,  999.0,    5.0,    6.5,  999.0,  999.0,  999.0,  999.0,  999.0,  999.0,  999.0,  999.0,  999.0,  999.0,  999.0,  999.0,  999.0,  999.0,  999.0,  999.0,  999.0,  999.0,  999.0,  999.0,  999.0,  999.0,  999.0,  999.0,  999.0,  999.0,  999.0,  999.0,  999.0,  999.0,  999.0,  999.0,  999.0,  999.0,  999.0,  999.0,  999.0,  999.0,  999.0,  999.0,  999.0,  999.0
2000/11/21 05:10,  999.0,  999.0,  999.0,  999.0,  999.0,    3.1,    5.3,    2.9,    4.0,    5.6,    6.7,    6.6,    6.5,    7.0,    7.7,  999.0,  999.0,  999.0,  999.0,  999.0,  999.0,  999.0,  999.0,  999.0,  999.0,  999.0,  999.0,  999.0,  999.0,  999.0,  999.0,  999.0,  999.0,  999.0,  999.0,  999.0,  999.0,  999.0,  999.0,  999.0,  999.0,  999.0,  999.0,  999.0,  999.0,  999.0,  999.0,  999.0,  999.0,  999.0,  999.0,  999.0,  999.0,  999.0,  999.0,  999.0,  999.0,  999.0
2000/11/21 05:20,  999.0,  999.0,  999.0,  999.0,  999.0,  999.0,    0.2,    1.3,    1.8,    2.6,  999.0,    7.8,    6.7,    6.9,  999.0,  999.0,  999.0,  999.0,  999.0,  999.0,  999.0,  999.0,  999.0,  999.0,  999.0,  999.0,  999.0,  999.0,  999.0,  999.0,  999.0,  999.0,  999.0,  999.0,  999.0,  999.0,  999.0,  999.0,  999.0,  999.0,  999.0,  999.0,  999.0,  999.0,  999.0,  999.0,  999.0,  999.0,  999.0,  999.0,  999.0,  999.0,  999.0,  999.0,  999.0,  999.0,  999.0,  999.0
2000/11/21 05:30,  999.0,  999.0,  999.0,  999.0,  999.0,    5.6,    0.4,    2.1,    2.1,    2.2,    7.2,  999.0,  999.0,  999.0,  999.0,  999.0,  999.0,  999.0,  999.0,  999.0,  999.0,  999.0,  999.0,  999.0,  999.0,  999.0,  999.0,  999.0,  999.0,  999.0,  999.0,  999.0,  999.0,  999.0,  999.0,  999.0,  999.0,  999.0,  999.0,  999.0,  999.0,  999.0,  999.0,  999.0,  999.0,  999.0,  999.0,  999.0,  999.0,  999.0,  999.0,  999.0,  999.0,  999.0,  999.0,  999.0,  999.0,  999.0
2000/11/21 05:40,  999.0,  999.0,  999.0,  999.0,  999.0,  999.0,  999.0,    2.5,    2.2,    3.9,    4.9,    6.9,    5.7,    7.4,    7.1,  999.0,  999.0,  999.0,  999.0,  999.0,  999.0,  999.0,  999.0,  999.0,  999.0,  999.0,  999.0,  999.0,  999.0,  999.0,  999.0,  999.0,  999.0,  999.0,  999.0,  999.0,  999.0,  999.0,  999.0,  999.0,  999.0,  999.0,  999.0,  999.0,  999.0,  999.0,  999.0,  999.0,  999.0,  999.0,  999.0,  999.0,  999.0,  999.0,  999.0,  999.0,  999.0,  999.0
2000/11/21 05:50,  999.0,  999.0,  999.0,  999.0,  999.0,    1.2,    3.6,    2.5,    2.7,    3.7,    4.2,  999.0,  999.0,  999.0,  999.0,  999.0,  999.0,  999.0,  999.0,  999.0,  999.0,  999.0,  999.0,  999.0,  999.0,  999.0,  999.0,  999.0,  999.0,  999.0,  999.0,  999.0,  999.0,  999.0,  999.0,  999.0,  999.0,  999.0,  999.0,  999.0,  999.0,  999.0,  999.0,  999.0,  999.0,  999.0,  999.0,  999.0,  999.0,  999.0,  999.0,  999.0,  999.0,  999.0,  999.0,  999.0,  999.0,  999.0
2000/11/21 06:00,  999.0,  999.0,  999.0,  999.0,  999.0,  999.0,    0.0,    2.8,    2.2,    3.3,    6.5,  999.0,    5.6,    7.4,    6.9,    7.4,  999.0,    8.8,  999.0,  999.0,  999.0,  999.0,  999.0,  999.0,  999.0,  999.0,  999.0,  999.0,  999.0,  999.0,  999.0,  999.0,  999.0,  999.0,  999.0,  999.0,  999.0,  999.0,  999.0,  999.0,  999.0,  999.0,  999.0,  999.0,  999.0,  999.0,  999.0,  999.0,  999.0,  999.0,  999.0,  999.0,  999.0,  999.0,  999.0,  999.0,  999.0,  999.0
2000/11/21 06:10,  999.0,  999.0,  999.0,  999.0,  999.0,    0.7,    0.8,  999.0,    1.8,    1.9,    8.1,  999.0,  999.0,  999.0,  999.0,    7.6,  999.0,  999.0,  999.0,  999.0,  999.0,  999.0,  999.0,  999.0,  999.0,  999.0,  999.0,  999.0,  999.0,  999.0,  999.0,  999.0,  999.0,  999.0,  999.0,  999.0,  999.0,  999.0,  999.0,  999.0,  999.0,  999.0,  999.0,  999.0,  999.0,  999.0,  999.0,  999.0,  999.0,  999.0,  999.0,  999.0,  999.0,  999.0,  999.0,  999.0,  999.0,  999.0
2000/11/21 06:20,  999.0,  999.0,  999.0,  999.0,  999.0,    2.6,    0.4,  999.0,    3.6,    4.8,  999.0,  999.0,    4.7,    7.6,  999.0,  999.0,  999.0,  999.0,  999.0,  999.0,  999.0,  999.0,  999.0,  999.0,  999.0,  999.0,  999.0,  999.0,  999.0,  999.0,  999.0,  999.0,  999.0,  999.0,   12.5,  999.0,   12.0,   11.5,   10.9,   10.3,    9.7,    9.3,    8.9,    8.4,  999.0,    6.8,  999.0,    6.0,  999.0,    5.9,    4.6,  999.0,  999.0,    2.8,    2.7,    1.6,    1.5,    0.9
2000/11/21 06:30,  999.0,  999.0,  999.0,  999.0,  999.0,  999.0,  999.0,    4.9,    1.7,    6.6,  999.0,  999.0,    7.3,    6.5,  999.0,  999.0,  999.0,  999.0,  999.0,  999.0,  999.0,  999.0,  999.0,  999.0,  999.0,  999.0,  999.0,  999.0,  999.0,  999.0,   10.1,    9.8,  999.0,    7.5,  999.0,    7.3,  999.0,    5.2,    3.8,    3.5,    2.5,    1.8,  999.0,    0.0,  999.0,    0.7,  999.0,  999.0,  999.0,    0.3,    0.4,    0.9,  999.0,  999.0,  999.0,    0.9,    1.1,  999.0
2000/11/21 06:40,  999.0,  999.0,  999.0,  999.0,   -0.5,  999.0,   -1.0,    5.0,  999.0,  999.0,    4.4,    7.2,    6.9,  999.0,    8.1,  999.0,  999.0,  999.0,  999.0,  999.0,  999.0,  999.0,  999.0,  999.0,  999.0,  999.0,  999.0,   12.4,  999.0,   11.3,  999.0,    9.3,    9.2,    7.9,  999.0,  999.0,    5.6,    5.2,  999.0,    3.6,  999.0,    2.0,    1.4,    1.3,    0.7,    0.8,   -0.2,    1.0,    0.6,    1.2,    1.3,  999.0,   -0.4,  999.0,  999.0,    0.4,    0.8,  999.0
2000/11/21 06:50,  999.0,  999.0,  999.0,  999.0,   -0.8,    1.1,    0.6,    1.8,  999.0,  999.0,  999.0,    5.2,  999.0,  999.0,  999.0,  999.0,  999.0,  999.0,    7.1,  999.0,  999.0,  999.0,  999.0,  999.0,  999.0,  999.0,  999.0,  999.0,  999.0,   12.2,   13.5,  999.0,  999.0,   11.1,   12.0,  999.0,  999.0,    6.3,  999.0,  999.0,    7.2,    2.7,    1.9,  999.0,  999.0,    2.9,    0.6,  999.0,  999.0,    0.9,  999.0,    0.8,    0.8,    0.0,  999.0,    0.9,    1.3,    0.4
2000/11/21 07:00,  999.0,  999.0,    0.1,    1.2,    0.7,    0.6,    1.5,  999.0,    3.3,    1.5,    8.3,  999.0,  999.0,    7.8,  999.0,  999.0,  999.0,  999.0,  999.0,  999.0,  999.0,  999.0,  999.0,  999.0,  999.0,   12.4,  999.0,  999.0,  999.0,    7.9,    6.7,  999.0,    5.0,  999.0,    2.9,    2.5,  999.0,    1.1,    0.5,    0.6,    1.1,    1.4,  999.0,    1.4,    0.7,    0.1,   -0.2,    1.5,  999.0,    0.6,    0.9,  999.0,    0.7,  999.0,  999.0,    0.7,    1.1,    0.9
2000/11/21 07:10,  999.0,  999.0,  999.0,    0.8,    1.1,    0.5,    0.4,    1.3,    0.9,    3.6,    3.4,    4.6,    4.5,  999.0,    5.1,    7.5,    6.6,  999.0,  999.0,  999.0,  999.0,  999.0,  999.0,  999.0,  999.0,  999.0,  999.0,   31.6,   34.6,   33.8,   37.0,   36.3,   38.4,   39.8,   40.7,   40.3,   41.4,   41.9,   42.0,  999.0,   41.8,   41.9,   41.8,   41.8,   41.9,   42.1,   42.1,   41.7,   41.6,   41.9,   40.8,   42.5,   42.4,   41.5,   41.8,   41.8,   41.7,   41.6
2000/11/21 07:20,  999.0,  999.0,  999.0,    1.2,    0.2,   -1.8,    1.3,    3.7,    3.2,    3.9,  999.0,  999.0,    7.2,  999.0,    7.1,    7.2,  999.0,  999.0,   13.0,  999.0,  999.0,  999.0,  999.0,  999.0,  999.0,   32.4,   32.5,   34.7,   35.5,   35.4,   38.1,   39.3,   39.1,   40.5,   40.2,   42.0,   41.6,   41.5,   42.2,   41.9,   41.9,   41.8,   41.7,   41.9,   41.8,   41.8,   41.4,   41.9,   41.7,  999.0,   40.7,  999.0,   40.8,   41.5,   41.9,   42.2,   41.9,   41.6
2000/11/21 07:30,  999.0,  999.0,  999.0,   -0.1,    1.3,   -0.3,    0.6,    2.8,    2.6,    2.7,    2.6,    4.3,    7.1,  999.0,  999.0,  999.0,  999.0,   13.1,  999.0,  999.0,  999.0,  999.0,  999.0,  999.0,  999.0,   32.6,   34.7,  999.0,   39.0,  999.0,   40.9,   39.7,  999.0,  999.0,  999.0,   41.3,  999.0,  999.0,   41.2,  999.0,   42.1,   41.6,   41.5,  999.0,   42.2,   42.1,   41.9,   41.6,   -0.0,   -0.1,   -0.2,   -0.7,   -1.4,   18.9,    2.0,   31.6,   21.0,   41.7
2000/11/21 07:40,  999.0,  999.0,   -1.0,    0.7,    0.9,    1.0,   -0.1,    3.1,    4.7,    3.6,    1.9,    4.9,    4.8,  999.0,  999.0,  999.0,  999.0,  999.0,  999.0,  999.0,  999.0,  999.0,  999.0,  999.0,  999.0,  999.0,  999.0,  999.0,  999.0,  999.0,  999.0,  999.0,  999.0,  999.0,  999.0,  999.0,  999.0,   42.2,   42.0,  999.0,  999.0,   41.9,  999.0,  999.0,   41.4,   41.8,  999.0,  999.0,  -10.4,  -21.2,    0.2,    1.5,    9.3,  999.0,   42.0,   41.6,  999.0,   -0.4
2000/11/21 07:50,  999.0,  999.0,  999.0,   -0.6,    0.2,   -0.3,   -1.0,    2.0,    1.4,    4.0,    2.9,    1.4,    2.6,    1.0,    4.7,  999.0,  999.0,  999.0,  999.0,  999.0,  999.0,  999.0,  999.0,  999.0,  999.0,  999.0,  999.0,  999.0,  999.0,  999.0,  999.0,  999.0,  999.0,  999.0,  999.0,  999.0,  999.0,  999.0,  999.0,  999.0,  999.0,  999.0,  999.0,  999.0,  999.0,  999.0,  999.0,  999.0,   -0.7,   -1.0,  999.0,  999.0,   13.0,   14.3,  999.0,  999.0,   -1.4,  999.0
2000/11/21 08:00,  999.0,  999.0,  999.0,  999.0,   -1.2,   -0.2,   -0.2,    2.2,    3.7,    3.0,    2.8,  999.0,    4.1,    5.2,  999.0,    4.8,  999.0,  999.0,  999.0,  999.0,  999.0,  999.0,  999.0,  999.0,  999.0,  999.0,  999.0,  999.0,  999.0,  999.0,  999.0,  999.0,  999.0,   -0.8,   -0.3,   -0.5,   20.8,   41.3,   41.9,   21.0,   20.3,   13.4,   20.1,   41.2,   -0.8,   20.6,   -0.2,   -0.6,   -0.8,  999.0,   -0.2,   -1.2,   -1.1,   -0.8,   -0.3,   20.6,   13.4,   -0.1
2000/11/21 08:10,  999.0,  999.0,  999.0,  999.0,  999.0,    0.3,    1.1,    2.6,    3.2,    5.4,    4.8,    4.5,    3.8,    7.5,   -0.1,  999.0,  999.0,  999.0,  999.0,  999.0,  999.0,  999.0,  999.0,  999.0,  999.0,  999.0,  999.0,  999.0,  999.0,  999.0,  999.0,  999.0,  999.0,   -0.5,  999.0,   -0.5,   -0.9,   -0.7,   -0.4,   -0.4,   -0.7,   -0.7,   -0.8,   -0.3,   -0.8,   -1.0,   -0.6,   -0.6,   -0.8,  999.0,   -1.1,   -0.4,   -0.3,   -0.8,   -1.2,   -0.4,   -0.5,   -0.9
2000/11/21 08:20,  999.0,  999.0,  999.0,  999.0,  999.0,    1.9,    2.0,    3.0,    4.9,    6.4,    5.5,    1.6,    3.3,  999.0,  999.0,  999.0,  999.0,  999.0,  999.0,  999.0,  999.0,  999.0,  999.0,  999.0,  999.0,  999.0,    5.8,  999.0,  999.0,  999.0,  999.0,   -0.7,   -0.4,  999.0,   -1.0,   -0.5,   -0.8,   -0.6,   -0.1,   -0.9,   -1.0,   -0.5,   -0.7,  999.0,   -0.6,   -0.9,   -0.7,   -0.7,   -0.7,   -1.2,   -1.0,   -0.5,    0.6,   -1.0,   -0.5,   -1.1,   -0.4,   -0.7
2000/11/21 08:30,  999.0,  999.0,  999.0,  999.0,  999.0,   -2.8,    0.9,    3.1,    3.4,    4.9,    3.8,    3.0,    3.2,    1.9,    0.7,  999.0,    4.8,    4.7,  999.0,  999.0,  999.0,  999.0,  999.0,  999.0,  999.0,  999.0,  999.0,  999.0,  999.0,  999.0,  999.0,  -31.1,  -30.7,  -31.6,  -32.6,  -33.1,  -36.0,  -23.9,  999.0,  -39.1,  -36.8,  -18.4,  -38.1,  -18.7,  -42.0,  999.0,  999.0,  -42.0,  -41.8,  -41.5,  999.0,  -41.9,  -42.0,  -42.4,  -41.3,  -41.9,  -20.2,  -41.5
2000/11/21 08:40,  999.0,  999.0,  999.0,  999.0,  999.0,   -0.6,  999.0,    3.1,    3.8,    5.1,    3.4,    3.2,    4.1,    0.3,  999.0,  999.0,  999.0,  999.0,  999.0,  999.0,  999.0,  999.0,  999.0,  999.0,  999.0,  999.0,  999.0,  999.0,  -39.0,  999.0,  -41.3,  -40.6,  -40.8,  -41.9,  -41.9,  -41.6,  -40.2,  -40.0,  -41.9,  -41.4,  -37.6,  -27.7,  -41.7,  -32.1,  -35.0,  -41.9,  -33.4,  -28.1,  -31.9,  -31.1,  -30.3,  -29.4,  -22.1,   -0.5,  -41.2,  999.0,  999.0,  999.0
2000/11/21 08:50,  999.0,  999.0,  999.0,  999.0,  999.0,    1.3,   -1.2,    2.7,    3.6,    5.3,    3.7,    3.3,    0.8,  999.0,  999.0,  999.0,  999.0,  999.0,  999.0,  999.0,  999.0,  999.0,  999.0,  999.0,   -4.0,  -36.4,    7.2,  -39.3,  -17.0,  -42.3,  -41.9,  -24.3,  -25.5,  -25.3,  -42.3,  -13.6,  -22.5,  -23.4,  -42.1,  -12.2,  -21.7,  -41.9,  -41.7,  -41.8,  -10.1,  -41.5,  -21.3,  -28.1,  -42.1,  -28.3,  -28.2,  -28.2,  -42.0,   -1.3,  -28.2,   -1.3,  999.0,  999.0
2000/11/21 09:00,  999.0,  999.0,  999.0,  999.0,  999.0,   -2.2,    1.4,    3.3,    4.1,    4.5,    1.9,    2.1,    3.4,    4.0,  999.0,  999.0,    6.0,  999.0,  999.0,  999.0,  999.0,  999.0,  999.0,  999.0,  -33.7,  999.0,  -36.9,  999.0,  -39.6,  999.0,  -42.1,  -16.2,  999.0,  999.0,  -41.7,  999.0,  -41.3,  -42.1,    0.4,  -20.9,  -41.9,    0.9,  -20.3,  -20.4,  -20.5,  -20.2,    1.2,  999.0,    0.5,  -20.6,  999.0,  -41.3,    0.6,  -20.2,  -29.7,  999.0,  999.0,    1.0
2000/11/21 09:10,  999.0,  999.0,  999.0,  999.0,    2.2,    1.7,    1.8,    3.4,    3.8,    5.1,    3.2,  999.0,    0.5,  999.0,  999.0,  999.0,   -1.7,  999.0,  999.0,   -1.7,  999.0,  -29.9,  -31.7,  999.0,  999.0,  999.0,  999.0,  999.0,  999.0,  999.0,  -16.8,  -15.4,  999.0,  999.0,  999.0,  999.0,  999.0,  999.0,  999.0,  999.0,  999.0,  999.0,  999.0,  999.0,  999.0,  999.0,  -16.5,  999.0,  999.0,  999.0,  999.0,  999.0,  999.0,  999.0,  999.0,  -41.9,  999.0,  999.0
2000/11/21 09:20,  999.0,  999.0,  999.0,  999.0,   -0.6,   -1.0,    2.9,    2.9,    5.8,  999.0,    4.2,    1.3,    1.4,  999.0,  999.0,  -18.3,  -17.4,  -16.9,  -16.4,  -15.5,  -15.3,  999.0,  999.0,  999.0,  -13.2,  999.0,  999.0,  -10.8,   -9.9,   -9.6,   -9.1,  999.0,  -12.3,   -7.0,   -6.5,   -5.7,  -41.1,   -3.8,   -3.4,  -41.1,   -2.8,  999.0,  999.0,   -0.5,   -2.6,   -7.6,  -12.0,  -15.9,  -20.5,  999.0,  999.0,   -7.3,   12.8,  999.0,  -20.2,  999.0,  -20.5,  -41.7
2000/11/21 09:30,  999.0,  999.0,  999.0,  999.0,  999.0,  999.0,  999.0,  999.0,  999.0,  999.0,  999.0,  999.0,  999.0,  999.0,  999.0,  999.0,  999.0,  999.0,  999.0,  999.0,  999.0,  999.0,  999.0,  999.0,   12.4,  999.0,   10.6,    0.9,  -16.5,  -10.0,  -15.4,    1.1,   -3.0,  -13.8,   -9.7,   -9.9,   -0.7,   -7.3,  -14.3,   -1.0,   -0.8,  -20.3,   -0.6,   41.8,    6.3,   20.4,   20.4,    6.3,    6.6,   -0.8,   -1.3,   -0.6,    9.4,    6.3,   42.1,   42.4,   -0.7,   13.6
2000/11/21 09:40,  999.0,  999.0,  999.0,  999.0,  999.0,    2.1,  999.0,  999.0,  999.0,  999.0,  999.0,  999.0,  999.0,  999.0,  999.0,  999.0,  999.0,  999.0,  999.0,  999.0,  999.0,  999.0,  999.0,  999.0,  999.0,  999.0,  999.0,  999.0,   -5.5,   -4.6,   -3.5,   -2.7,   -1.2,   -1.4,   -1.4,   -0.8,   -0.3,   -0.4,   -0.5,   -0.3,   -0.6,   -0.7,   -0.7,   -0.5,   -1.1,   -0.7,   -0.7,   -0.6,   -0.8,   -0.7,   -0.8,   -0.8,   -0.3,   -1.0,   -1.2,   -0.5,   -0.6,   -0.3
2000/11/21 09:50,  999.0,  999.0,  999.0,    1.3,    2.1,    3.2,    4.6,    3.4,    3.3,    1.9,    1.3,  999.0,  999.0,  999.0,  999.0,  -21.6,  -19.8,  999.0,  999.0,  -11.3,  999.0,  999.0,  999.0,  999.0,  999.0,  999.0,  999.0,  999.0,   34.2,  999.0,  999.0,  999.0,  999.0,  999.0,   -1.0,   10.0,   -1.1,   42.0,   20.8,   -0.8,   20.5,   20.3,   -0.6,   21.1,   20.8,   -1.5,   -0.4,  999.0,   -0.6,   -1.1,   -0.9,   -0.5,   -1.0,   -0.1,   -0.5,   -0.8,  999.0,   -0.7
2000/11/21 10:00,  999.0,  999.0,  999.0,  999.0,    1.5,    1.4,    1.4,    1.9,    1.2,    2.2,    3.7,    3.2,    3.7,    2.6,  999.0,  999.0,   23.7,  999.0,  999.0,  999.0,  999.0,  999.0,  999.0,  999.0,  999.0,  999.0,  999.0,  999.0,  999.0,  999.0,  999.0,  999.0,  999.0,  999.0,  999.0,   -0.8,   -0.6,   -0.4,   -0.5,   -0.7,   -0.5,   -0.8,   -0.5,   -0.8,   -0.6,  999.0,   -1.2,  999.0,   -0.6,   -0.5,   -1.1,   -0.7,   -0.7,   -1.1,   -0.4,   -1.1,   -0.9,   -0.8
2000/11/21 10:10,  999.0,  999.0,  999.0,  -10.0,   -6.8,    1.8,    1.6,    1.4,    2.4,    3.4,    3.6,    4.1,    3.5,    2.6,  999.0,  999.0,  999.0,  999.0,  999.0,   26.6,  999.0,  999.0,   29.8,  999.0,  999.0,  999.0,  999.0,  999.0,  999.0,  999.0,  999.0,   23.3,   11.8,  999.0,   -0.5,   -0.7,   -8.0,  -34.4,  -15.3,   -0.6,   -0.9,   -3.3,   -8.4,   -8.6,   -3.9,   -1.3,   -7.7,  -18.1,  -21.4,  -11.2,   -9.1,   -0.8,  -20.2,  -22.3,  -11.4,  999.0,   -1.0,   -0.7
2000/11/21 10:20,  999.0,    1.7,    2.5,    0.4,   -1.2,   -0.2,    0.3,    0.9,    1.6,    2.8,    4.0,    4.1,    3.6,  999.0,   -0.2,  999.0,  999.0,  999.0,  999.0,  999.0,  999.0,  999.0,  999.0,  999.0,  999.0,  999.0,  999.0,  999.0,  999.0,  999.0,   41.4,   24.6,   17.7,   20.7,    1.6,  -41.0,  -21.2,  -10.8,   27.3,   17.3,   -0.5,   13.7,  -10.1,  -20.1,   -0.0,    6.2,  -19.1,   -5.0,   -0.0,   20.5,   -0.4,  -21.4,    1.6,   12.8,  -42.4,  -11.0,  -21.6,   -0.7
2000/11/21 10:30,  999.0,   -0.0,    3.3,    1.5,    1.7,    1.7,    1.1,    1.4,    1.6,    1.9,    4.0,  999.0,   10.8,  999.0,  999.0,   21.8,   34.5,   35.3,   25.2,   32.7,   28.8,   22.5,   35.3,   37.7,   41.7,   41.6,   41.8,   41.0,  999.0,   41.8,   41.8,   31.1,   30.6,   36.4,   41.9,   41.4,   41.4,   41.6,   41.0,   41.0,   27.3,   27.4,   41.5,   41.8,   41.5,   27.6,   20.6,   41.2,  999.0,   20.2,   20.5,   -0.6,  999.0,  999.0,   -0.6,  999.0,   -0.6,   -0.5
2000/11/21 10:40,  999.0,    0.7,    1.6,    0.2,    0.2,    1.6,    0.7,    1.0,    2.0,    3.2,    6.2,  999.0,  999.0,   20.5,   13.5,   13.6,   18.9,   22.4,   33.5,   35.3,   20.4,    8.8,  999.0,   31.8,   30.0,   41.7,   42.5,  999.0,   41.9,  999.0,   42.0,   24.9,   13.3,   23.1,  999.0,  999.0,  999.0,  999.0,  999.0,  999.0,   -0.9,  999.0,  999.0,   -0.4,  -12.8,   -1.8,   -4.1,   -1.3,   -0.7,   -0.7,  -12.8,   -8.9,  999.0,   20.8,   13.9,   14.0,   -0.7,   13.8
2000/11/21 10:50,  999.0,    0.6,    1.3,    0.6,    0.7,    0.5,    0.6,    1.3,  999.0,  999.0,  999.0,  999.0,  999.0,  999.0,   21.8,   24.2,   27.3,   28.5,   31.7,   34.1,   35.9,   40.8,   38.3,  999.0,   40.5,   40.4,   41.8,  999.0,   42.0,  999.0,  999.0,   25.5,   25.0,  999.0,   41.7,   42.0,  999.0,   41.5,  999.0,   41.4,   -0.7,   41.7,   42.0,  999.0,    6.2,   20.5,   -1.0,   -0.8,   -0.8,    6.2,   -1.0,   13.7,    6.6,    6.5,   -0.9,   -1.0,   -0.5,   13.2
2000/11/21 11:00,  999.0,    0.4,    0.7,    0.2,    0.6,    0.6,    0.7,    2.3,    2.2,    3.1,    1.9,   21.3,  999.0,   -6.0,   -7.8,   -9.3,   11.8,  999.0,  999.0,  999.0,    0.3,    4.8,  999.0,  999.0,  999.0,  999.0,  999.0,  999.0,  999.0,  999.0,  999.0,    0.5,  999.0,  999.0,    0.7,    0.9,    0.5,    0.8,  -41.4,    0.4,    0.8,  999.0,    0.5,    0.8,  -33.4,  -21.1,  999.0,  999.0,  -41.7,  -20.8,  -27.6,  -18.6,  -20.2,   -1.1,  -20.5,  -14.0,    0.1,  -17.4
2000/11/21 11:10,  999.0,    1.7,    1.5,    0.9,   -0.3,   -0.7,    0.2,    0.3,    0.7,    1.5,    1.5,    3.5,    0.2,   -5.5,   -1.7,   -5.9,  999.0,  999.0,  999.0,  999.0,  999.0,  999.0,  999.0,  -16.2,  -15.2,   -6.3,  -16.8,  -16.2,  -15.3,  -14.7,  999.0,  999.0,  999.0,  999.0,    1.6,    0.9,    0.8,    0.7,    0.8,    0.9,    0.6,    0.6,    0.8,    0.7,    0.8,    0.4,    0.3,   -6.5,    0.6,    0.9,   -9.8,  -20.4,    0.2,    0.5,  -20.4,    0.8,    0.9,  -10.0
2000/11/21 11:20,  999.0,    0.8,    1.6,    1.3,    1.3,    0.9,    1.0,    1.2,    1.7,    0.8,    0.4,   -2.0,   -5.0,  999.0,   -6.7,   -6.0,  999.0,  999.0,    1.1,    0.7,  999.0,  999.0,  999.0,  999.0,  999.0,  999.0,  999.0,  -15.5,  -15.2,  999.0,  999.0,  999.0,  999.0,  999.0,    0.6,    0.5,    0.8,    0.7,    0.8,    0.9,    1.0,    0.7,    0.7,    0.7,    0.6,    0.7,    0.6,    0.9,    0.5,    0.6,    0.8,    0.9,    1.0,    0.5,    0.6,    0.9,    1.0,    0.6
2000/11/21 11:30,  999.0,    1.0,    1.1,    1.3,    1.1,   -0.7,    0.4,    0.4,    0.8,    1.0,    1.8,  999.0,    6.2,    3.0,    7.5,   16.3,   13.1,   10.4,    6.7,    3.0,    0.7,  999.0,  999.0,  999.0,  999.0,   11.1,  999.0,    0.2,    0.9,    0.7,  999.0,    0.7,    0.7,    0.9,    7.7,    1.4,    1.3,    0.8,   14.3,   14.2,    0.8,   11.0,    0.7,    0.8,    6.0,   17.6,    5.3,    0.6,    4.2,   14.6,   12.8,    8.6,   18.3,    1.4,    8.0,   13.9,    0.8,    0.8
2000/11/21 11:40,  999.0,    1.4,    0.9,    3.4,    1.5,    0.1,   -0.1,   -0.3,  999.0,    4.0,   -0.6,    1.5,    0.6,   -0.1,  999.0,   -0.8,   -2.9,  999.0,  999.0,    9.2,  999.0,  999.0,  999.0,  999.0,    1.0,    0.4,    0.8,    1.0,    1.0,    1.0,    0.9,    1.2,    1.0,  999.0,    0.5,    0.7,    0.7,    0.7,    0.8,    0.8,    0.6,    0.4,    0.9,    0.9,    0.8,    0.9,    0.6,  -20.5,   -8.4,   -2.2,    1.2,   12.0,   -7.7,    7.4,   14.0,   -7.0,  -20.4,    0.6
2000/11/21 11:50,  999.0,  999.0,  999.0,  999.0,  999.0,  999.0,  999.0,    0.6,    1.7,    0.5,    3.7,    1.5,    1.6,    1.4,  999.0,  999.0,  999.0,  999.0,  999.0,  999.0,  999.0,    0.6,  999.0,    0.6,  999.0,    0.6,    0.2,  999.0,    0.6,    0.5,  999.0,  999.0,    1.0,    1.8,    0.6,    0.3,  999.0,  999.0,    0.9,    0.8,    0.7,    0.6,    1.1,    0.7,    0.7,    1.2,    1.0,    1.0,    0.7,    0.7,    0.6,    0.5,    0.6,  999.0,    0.5,    0.2,  999.0,  999.0
2000/11/21 12:00,  999.0,    0.1,   -0.1,    0.0,   -1.1,    1.5,    0.2,   -0.2,   -0.1,   -1.2,   -1.0,    0.6,   -1.1,   -2.1,   -0.3,   -5.2,  999.0,  999.0,  999.0,  999.0,  999.0,    1.2,    1.0,  999.0,    0.9,    0.1,    0.9,  999.0,    1.3,  999.0,    1.5,    0.9,    1.9,    1.4,    0.8,    0.9,  999.0,    0.6,    0.7,    0.9,  999.0,    0.3,  999.0,   21.3,   42.1,    0.7,   28.2,   42.2,   42.0,   41.9,   41.6,   42.1,   42.1,   41.9,   41.7,   41.9,   41.7,   41.6
2000/11/21 12:10,  999.0,    1.8,    0.9,    0.9,   -0.3,   -0.3,   -1.6,   -4.6,   -3.7,   -4.3,   -3.2,   -6.0,   -3.4,   -8.3,   -2.1,  999.0,  999.0,  999.0,  999.0,    8.1,    1.0,    0.9,    1.6,    6.6,    0.5,   13.7,    0.8,   14.0,   11.5,    0.8,    7.0,    3.8,    2.7,    1.0,    0.6,    0.6,    5.6,    1.3,   15.1,   16.8,    7.0,   21.3,   21.5,   12.4,    3.3,   14.0,    4.0,   11.0,   11.2,  999.0,   33.2,    7.3,   42.0,   42.2,   42.1,   41.7,   41.8,   42.5
2000/11/21 12:20,  999.0,    0.6,   -0.2,   -0.1,   -0.5,   -1.1,   -0.8,   -0.1,    0.6,    1.3,    1.3,    1.2,    2.4,    2.4,    0.5,  999.0,  999.0,  999.0,  999.0,    3.3,    1.7,    1.2,    0.5,    0.8,    0.5,    0.7,    0.5,    0.8,    0.5,    0.7,    0.6,    0.2,    0.8,    1.2,    0.5,    0.7,    0.9,    0.9,    1.1,    0.9,    0.9,    0.4,    0.6,    0.6,    0.7,    0.9,    0.7,    0.7,    0.9,    0.5,    0.6,    0.6,    0.6,    0.9,    1.0,    0.7,    0.7,    0.7
2000/11/21 12:30,  999.0,   -0.7,   -0.0,    0.2,   -0.9,   -1.5,   -0.9,   -0.7,   -0.4,   -0.3,    0.2,    1.7,    1.2,    1.6,    2.2,  999.0,  999.0,  999.0,  999.0,   16.5,   34.4,   19.5,   26.7,   27.0,    0.8,   11.2,   11.1,    7.5,   10.2,  999.0,    3.2,    0.8,    0.6,    0.8,    6.0,   17.3,    0.7,   14.3,   14.5,   41.5,   21.0,   10.8,   15.0,   12.2,    4.8,    0.5,    0.6,   18.1,   13.1,   28.0,   25.3,   19.5,    0.4,   37.8,    1.2,   21.6,   21.4,    1.8
2000/11/21 12:40,  999.0,   -1.4,   -0.6,    0.3,    0.0,   -0.5,   -0.4,   -0.8,   -1.5,   -2.0,   -0.7,    0.8,    1.9,    0.9,  999.0,    5.0,  999.0,  999.0,  999.0,    5.3,    4.6,    3.6,    1.8,   15.3,   13.9,    7.8,    1.0,    0.7,   10.4,    0.5,    0.7,    0.6,    0.5,    0.4,    0.7,    0.8,   10.1,    0.6,   11.6,   14.2,    0.6,   21.1,    0.8,    1.0,    1.0,    1.1,    8.9,    0.5,    0.9,   14.4,   21.4,   14.9,   13.5,    7.1,    0.7,    0.7,    0.8,    0.8
2000/11/21 12:50,  999.0,    0.1,    0.8,    0.8,    0.9,    0.1,    0.5,    0.7,    0.6,   -0.2,   -0.1,   -0.3,   -0.8,   -1.2,    1.2,    2.0,  999.0,  999.0,  999.0,  999.0,  999.0,  999.0,   41.0,   36.7,    1.5,   22.2,   21.2,    0.8,    1.0,   19.5,   29.9,   13.4,    4.3,    0.7,    1.0,    7.9,    4.1,   13.7,   17.7,   17.2,   14.2,   14.4,   21.6,   41.3,   21.0,   41.7,   40.9,   41.6,   41.4,   42.2,   41.5,  999.0,   21.2,   41.7,   41.7,   21.5,   42.4,   42.7
2000/11/21 13:00,  999.0,  999.0,  999.0,    3.0,    1.2,    0.2,    0.0,    0.0,   -0.5,   -0.2,    0.3,    2.7,    3.6,    7.1,    8.9,    5.9,   12.6,   19.6,   21.7,   17.1,   27.6,   14.6,   16.8,   12.2,    3.9,   12.5,    6.4,    7.0,   13.9,   19.1,   18.7,    8.1,   23.2,   22.1,   16.0,   41.3,   30.9,   20.5,   31.1,   42.3,   20.4,   20.4,   42.0,   41.5,   41.6,   20.6,  999.0,   31.9,   41.8,   42.0,   42.3,  999.0,   31.3,   41.5,   -0.5,   30.6,    9.9,   20.6
2000/11/21 13:10,  999.0,    1.9,  999.0,  999.0,  999.0,  999.0,  999.0,  999.0,  999.0,   -1.6,    0.5,    3.8,    5.4,    9.9,  999.0,  999.0,  999.0,   23.7,  999.0,   -0.8,   12.6,   -0.8,   42.3,  999.0,  999.0,  999.0,  999.0,  999.0,  999.0,   19.5,   21.0,   18.7,   17.2,   15.4,   11.0,   11.0,  999.0,   29.4,   28.6,   26.3,   12.3,  999.0,   22.0,   -0.8,  999.0,    8.3,    7.7,  999.0,   12.6,   18.0,   17.6,   10.2,   -1.2,    5.0,    1.2,    1.8,   -0.0,   -0.5
2000/11/21 13:20,   21.8,   23.0,   20.2,   23.1,   22.8,   15.1,   22.1,   22.4,   22.4,   23.2,   15.4,   23.9,   13.3,   23.7,  999.0,  999.0,  999.0,   34.1,   28.0,   41.7,  999.0,   42.0,   23.5,  999.0,  999.0,   41.9,   42.3,   41.9,   42.2,   42.0,  999.0,   41.4,   41.9,  999.0,   20.7,  999.0,   20.7,   -0.7,   -0.7,   -1.3,   42.2,   42.1,   42.0,   31.3,   20.5,   20.5,   42.0,   20.6,   41.8,   30.8,   41.9,   41.8,  999.0,   41.5,   41.6,   41.9,   42.0,   41.8
2000/11/21 13:30,  999.0,    4.1,    3.0,    3.7,    4.0,    3.3,    3.0,    2.4,    6.4,    8.5,    7.7,    5.3,   14.8,   25.6,   26.0,   30.4,   33.3,   34.3,   22.4,   26.7,   32.0,   34.3,   39.3,   42.4,   41.9,   42.2,  999.0,  999.0,  999.0,   42.0,   35.8,   36.0,   42.5,   41.4,   42.4,   42.4,   43.0,   42.0,   42.3,   41.8,   41.2,   41.5,   41.5,   42.1,   42.3,   41.9,   41.9,   -3.7,   19.9,   18.4,   -0.5,   -0.8,   20.5,   20.4,   20.5,   20.5,   -0.8,   -0.9
2000/11/21 13:40,  999.0,   -4.1,   10.8,    7.9,   10.8,    9.4,   13.1,   15.3,   22.9,    1.9,   13.4,    0.2,   -1.1,    0.3,    1.0,    2.0,    2.6,    0.5,    1.9,    3.3,    1.8,   -0.8,   -1.1,   -1.9,   -3.8,   -4.0,   -2.5,   -2.5,   -3.1,   -5.0,  999.0,  999.0,  999.0,  999.0,   -9.4,   -5.0,   -4.3,    0.7,   -0.6,    1.9,    3.0,    4.3,    5.4,    6.8,    7.7,    8.2,   10.1,   11.9,   15.2,   17.5,   21.0,  999.0,  999.0,  999.0,  999.0,  999.0,  999.0,  999.0
2000/11/21 13:50,   -2.0,    0.6,    1.7,    1.7,   -0.2,   -0.3,   -0.0,    0.8,    2.5,    0.7,    3.8,    4.7,    6.9,    2.3,    4.3,    5.8,    7.1,   10.8,   12.1,   12.8,    8.3,   16.9,   -7.0,    9.7,   21.5,   21.4,   20.8,   12.3,   11.4,  -12.1,   18.9,    3.2,    8.3,    3.4,    8.2,    8.3,   13.0,    4.4,    3.7,    9.5,   10.9,   10.9,   13.9,   13.5,   12.3,   16.4,   21.4,   22.3,   22.3,   10.9,  999.0,   25.4,   12.1,    9.0,   42.4,   42.0,  999.0,   20.7
2000/11/21 14:00,  999.0,    0.5,    2.4,    4.0,    5.8,    3.9,    1.5,  999.0,  999.0,  999.0,  999.0,  999.0,  999.0,  999.0,   -2.1,   -3.2,   -3.0,   -3.4,   -3.1,   -1.8,   -0.5,   -1.1,    6.9,    4.8,    3.3,    2.2,  999.0,  999.0,  999.0,  999.0,  999.0,    6.2,   -5.7,   -8.1,   -2.1,   -0.7,   -1.2,    0.1,    1.7,    5.5,    7.1,    7.3,   10.9,   12.8,   15.3,   17.4,   26.4,   26.2,   22.3,  999.0,  999.0,  999.0,  999.0,  999.0,  999.0,  999.0,  999.0,  999.0
2000/11/21 14:10,  999.0,  999.0,  999.0,    7.6,    9.8,    8.5,   10.8,    7.5,    6.7,    7.1,    6.4,    4.7,    2.1,    3.8,    5.9,    7.3,    9.0,   10.5,   11.7,   10.0,   12.2,   13.7,   11.7,   11.3,   11.5,   18.1,   11.3,   13.4,   16.5,   16.8,   17.1,   18.3,   20.7,   21.3,   21.1,   19.1,   19.1,  999.0,   22.0,  999.0,   32.7,   33.1,   20.6,  999.0,  999.0,   24.0,   20.2,   20.4,   41.5,   29.3,   25.6,   42.3,   41.5,   42.2,   41.7,  999.0,   42.4,    2.7
2000/11/21 14:20,  999.0,  999.0,    4.1,   -2.1,  999.0,  999.0,   -4.6,    3.0,   -2.9,  -13.1,    4.5,    3.9,    2.5,   -3.8,    1.6,   -1.5,    6.2,    8.8,    5.4,   -1.3,    9.3,  999.0,   -1.4,   -0.9,  -21.1,   14.2,   15.1,   15.4,   -3.4,   16.3,  -20.0,    0.1,   -2.5,    3.0,   17.9,   18.7,   38.8,   12.6,   19.9,   -0.6,   13.4,   41.9,    0.1,   -0.2,   13.1,    7.9,   41.7,   16.8,   42.0,   11.8,  -10.6,    0.3,    0.3,   41.7,    1.2,   10.6,    0.1,    7.4
2000/11/21 14:30,  999.0,    1.5,    4.6,    6.6,    6.8,    6.2,    4.2,    3.7,    3.8,    3.0,    1.5,    0.7,    0.8,    1.0,    2.5,    4.1,    5.0,    6.8,   10.6,   17.6,  999.0,  999.0,  999.0,  999.0,  999.0,   39.4,   39.8,   40.2,   40.4,   40.8,   41.8,   41.6,   41.7,   41.7,   41.6,   42.1,   41.8,   41.6,   41.7,   41.8,   21.1,   41.9,   42.0,   20.7,   34.6,   12.5,  999.0,    7.9,   20.9,   10.1,   10.0,   -3.8,   -3.3,   -7.6,   10.0,   -0.8,   -0.6,   -0.8
2000/11/21 14:40,  999.0,   13.6,   15.4,   16.6,   17.0,   11.6,   11.0,   14.1,    1.3,    1.9,   -0.1,   -0.1,   12.2,   12.8,    1.8,    3.7,   -3.3,   -0.2,    1.1,    1.5,    2.1,    2.1,    1.2,   -5.3,   -5.4,    1.9,    9.3,    9.7,    3.4,    4.2,   11.2,   11.8,   11.8,    5.5,    5.1,    3.9,    2.1,    7.9,    8.0,    5.9,   35.4,   16.3,   11.7,   10.9,   12.7,   11.2,   13.8,    9.1,   12.0,   12.1,   11.8,   10.6,    6.5,    6.8,    6.3,    4.9,    5.4,    5.9
2000/11/21 14:50,    0.9,    2.6,    5.1,    6.5,    7.6,    6.2,    2.9,    2.4,    2.4,    1.6,    0.8,    0.2,   -0.4,   -0.9,   -0.3,    0.9,    2.0,    2.4,    2.4,    2.9,    3.0,    2.2,    2.4,    2.9,    2.6,    2.7,    3.2,    4.0,    5.2,    5.5,    5.3,    5.2,    5.4,    5.7,    5.9,    5.6,    5.4,    5.0,    4.8,    5.8,    8.2,    7.9,    7.6,    6.0,    7.1,    7.8,    8.7,    7.6,    7.5,    8.1,    8.5,    8.3,    8.7,    8.9,    8.9,    9.3,    8.9,    8.9
2000/11/21 15:00,  999.0,    3.2,    4.8,    6.7,    4.3,    4.1,    3.5,    4.4,    4.9,    4.9,    2.6,    1.0,    0.1,   -0.3,    0.8,    2.0,    3.1,    3.9,    4.3,    4.8,    4.9,    5.0,    4.6,    5.2,    5.9,    5.2,    4.2,    6.2,    7.7,    6.6,    7.5,    8.3,    9.4,   10.8,   12.1,    9.2,    8.7,    7.5,    7.1,    8.2,    8.6,    6.1,    5.5,    6.1,    6.7,    7.0,    7.0,    7.0,    7.4,    7.8,    8.4,    9.4,    9.0,    9.3,    9.4,    8.5,    8.7,    8.5
2000/11/21 15:10,  999.0,    5.2,    7.7,    4.0,    3.6,    4.5,    5.1,    4.8,    4.8,    4.9,    4.2,    3.6,    4.3,    4.3,    4.7,    5.8,    6.2,    7.2,    7.5,    7.8,    8.3,    8.6,    9.1,   10.1,   10.5,    8.8,    8.4,    9.3,    8.7,    8.6,   11.4,    9.9,    8.2,    4.9,    5.5,    8.9,    6.6,    7.0,    6.4,    7.4,    9.8,   11.2,    9.7,    6.4,    5.3,    4.3,    4.1,    4.6,    5.0,    5.6,    6.7,    7.7,    8.3,    8.6,    7.8,    8.4,    8.8,    9.1
2000/11/21 15:20,   20.3,   13.6,   15.7,   10.8,   12.8,   13.4,    7.4,    5.7,    1.2,    5.8,    0.6,    1.1,    0.8,   -3.2,   -1.6,   -0.3,    1.0,    2.2,    6.6,    4.9,    6.5,    6.2,    5.8,    5.0,    4.8,    5.1,    4.6,    3.4,    5.0,    5.4,    1.7,    0.7,    0.9,    2.2,    0.9,    0.6,   -0.1,    0.2,    1.5,    2.5,    2.8,    4.0,    7.8,  999.0,  999.0,    6.4,    5.8,    7.4,    7.8,    8.4,    8.4,    9.2,    8.5,    9.0,  999.0,  999.0,  999.0,  999.0
2000/11/21 15:30,    0.9,    2.8,    1.9,    2.0,    2.8,    3.4,    3.1,    3.3,    3.4,    2.7,    1.7,    2.9,    4.0,    4.8,    4.9,    6.3,    5.3,    6.5,    6.3,    8.1,    7.4,    7.5,    7.7,    6.0,    6.2,    4.2,    6.2,    5.4,    2.7,    1.4,    4.2,    7.5,    1.8,    5.0,    4.3,    2.8,    4.4,    5.8,    6.4,    5.7,    5.4,    4.2,    5.0,   12.9,  999.0,    8.5,    7.7,    7.6,    7.4,    9.0,  999.0,  999.0,  999.0,  999.0,  999.0,  999.0,  999.0,  999.0
2000/11/21 15:40,   -0.2,   16.3,   13.8,   17.1,   17.7,   18.7,   19.6,  999.0,   19.1,  999.0,  999.0,  999.0,  999.0,   21.2,  999.0,  999.0,  999.0,  999.0,    0.1,  999.0,    0.2,  999.0,  999.0,    3.2,    5.0,    6.2,    5.8,    7.6,    7.4,    7.8,    9.5,   10.4,    8.4,    9.1,    8.7,    8.3,   10.6,   10.2,   10.9,    8.8,    9.4,    8.6,    7.9,  999.0,  999.0,    8.6,  999.0,  999.0,  999.0,  999.0,  999.0,  999.0,  999.0,  999.0,  999.0,  999.0,  999.0,  999.0
2000/11/21 15:50,  999.0,  999.0,   19.2,   13.1,   18.6,   20.8,   23.3,   22.6,   20.9,   20.6,   21.3,   21.1,   20.7,   21.0,   19.9,   22.3,   23.0,   23.1,   23.9,   25.3,  999.0,  999.0,  999.0,  999.0,  999.0,  999.0,  999.0,  999.0,  999.0,  999.0,  999.0,  999.0,    0.0,  999.0,   -0.9,  999.0,  999.0,  999.0,  999.0,  999.0,  999.0,  999.0,  999.0,  999.0,  999.0,  999.0,  999.0,  999.0,  999.0,  999.0,  999.0,  999.0,  999.0,  999.0,  999.0,  999.0,    8.0,  999.0
2000/11/21 16:00,  999.0,  -11.9,   -2.1,    4.9,   -2.9,   -2.5,  -11.7,  -12.5,   -2.2,    1.8,   -0.2,   -0.1,   -2.2,   -3.1,   -0.9,   -2.7,   -3.5,   -3.3,   -3.0,   -4.7,   -3.9,    3.9,    3.3,    1.8,   -7.1,    0.1,  999.0,  999.0,  999.0,  -39.7,  -41.2,  -42.7,  999.0,  999.0,  -41.7,  -41.8,  -41.7,  999.0,  999.0,  999.0,  999.0,  999.0,  999.0,  999.0,  999.0,  999.0,   16.6,    1.3,    0.9,   27.4,    1.4,  999.0,   38.2,   41.3,  999.0,  999.0,  999.0,   40.7
2000/11/21 16:10,  999.0,   -0.5,   -0.0,    0.7,    0.1,   -0.5,    1.2,    1.5,    0.2,    1.1,   -0.1,   -0.4,   -0.5,   -0.2,   -0.9,   -1.8,   -3.3,   -3.7,   -4.4,   -4.8,   -5.6,   -6.8,   -7.2,   -7.9,   -8.3,   -9.9,  999.0,  999.0,  999.0,  999.0,  999.0,  999.0,  999.0,  999.0,  999.0,  999.0,  999.0,  999.0,  999.0,  999.0,  999.0,  999.0,  999.0,  999.0,  999.0,    1.4,    0.9,   22.4,   17.9,    0.5,   27.2,   41.7,   30.8,   13.1,   27.5,  999.0,  999.0,   21.7
2000/11/21 16:20,  999.0,   -3.8,  999.0,  999.0,  999.0,  999.0,    3.0,    3.3,   -5.9,   -0.8,    1.6,    0.0,   -2.8,   -5.3,   -8.1,   -8.6,  -10.8,   10.6,   10.4,   25.1,   18.1,   19.8,   11.1,   12.6,   13.3,   26.1,   26.0,   28.3,   29.2,   28.0,    3.7,    3.6,    3.9,    4.1,    6.4,    7.4,    9.2,   10.9,   12.6,   11.8,   11.8,   12.1,   11.1,   10.3,   12.1,   19.8,   13.1,   25.1,   17.1,   41.4,  999.0,   42.6,  999.0,  999.0,  999.0,  999.0,  999.0,   42.0
2000/11/21 16:30,  999.0,   -1.0,    1.6,    3.5,    3.7,    3.7,    2.9,    3.3,    2.0,    1.2,    0.3,   -0.5,   -1.6,   -2.1,   -0.1,    1.2,    0.4,    0.2,   -0.1,   -0.6,    0.7,    1.1,    0.8,    0.2,   -0.0,    0.3,    0.4,    0.1,    0.1,   -0.6,    0.3,    0.1,   -0.3,   -0.3,    0.9,    3.2,    4.9,    5.2,    4.8,    5.8,    4.7,    7.6,    4.8,    1.8,    1.4,   -1.7,    2.3,    3.5,    3.5,    3.3,    4.2,    1.6,    8.4,    8.5,    4.4,    6.2,   10.7,   14.5
2000/11/21 16:40,  999.0,    0.4,    0.5,    0.6,    1.2,    2.0,    2.9,    2.8,    6.2,    2.4,    6.5,    4.2,    3.3,    3.3,    4.4,    3.5,    1.2,    1.5,    1.4,    0.8,    0.8,    2.1,    2.4,    3.0,    3.5,    3.4,    3.4,    5.0,    5.2,    5.6,    5.2,    0.2,   -0.4,   -1.8,   -3.3,    1.8,   -0.1,    4.3,    4.2,    2.8,  999.0,    0.4,    0.9,   -1.5,    1.1,    3.1,   -7.9,  999.0,  999.0,   10.9,  999.0,  999.0,  999.0,  999.0,  999.0,   -1.6,  999.0,  999.0
2000/11/21 16:50,  999.0,   -6.8,   -4.2,   -1.3,   -1.1,   -0.5,   -0.8,   -0.7,   -1.0,   -1.4,   -1.6,   -1.7,   -1.5,   -1.3,   -1.0,   -3.4,   -3.4,   -2.0,   -0.9,    0.3,    0.1,    0.1,   -0.4,   -0.8,   -0.5,    0.4,   -0.5,   -0.9,   -1.7,   -2.7,   -3.0,   -3.5,   -2.2,   -2.3,   -2.1,   -1.3,   -2.2,   -2.0,   -2.3,   -1.0,   -1.8,   -0.7,   -6.5,   -3.8,   -4.7,   -2.5,    2.3,    5.1,   10.7,   -0.6,  999.0,  999.0,  999.0,  999.0,  999.0,  999.0,  999.0,  999.0
2000/11/21 17:00,  999.0,    0.8,   -3.1,    2.7,  999.0,  999.0,   -1.4,    4.7,    4.5,    3.7,   -0.2,   -0.8,   -2.1,   -1.3,   -0.2,    2.5,    4.3,    3.3,    3.1,    4.3,    3.1,    2.8,    3.1,    3.9,    5.0,    3.1,    1.2,    0.4,    0.5,    0.2,    1.1,    3.1,   -0.9,   -0.2,   -0.6,   -0.8,    3.7,    1.9,    0.2,   -2.7,    0.2,   -0.8,   -2.7,   -4.8,   -1.4,   -3.2,   -0.6,    2.8,    2.8,    3.3,    3.2,    8.3,   12.6,   16.0,    5.7,    6.6,    5.1,    5.0
2000/11/21 17:10,  999.0,   -4.0,   -0.9,    1.6,    3.2,    0.7,    0.1,    0.1,   -0.4,   -1.2,   -0.9,    0.1,    1.7,    2.4,    2.6,    1.2,    0.9,    0.1,    0.6,    0.6,    0.3,    0.4,    0.8,    1.1,    0.9,    0.8,    0.6,    1.4,    1.4,    1.4,    2.0,    2.5,    2.3,   -0.7,   -0.3,   -1.2,   -1.6,   -2.9,   -3.1,   -3.4,   -6.1,   -5.2,   -5.7,   -4.0,   -2.4,   -4.5,   -2.6,   -0.1,    0.9,    0.1,   -0.4,    2.5,    5.9,    6.0,    6.1,  999.0,    3.7,    5.9
2000/11/21 17:20,  999.0,   -3.0,   -3.3,   -0.0,    0.0,   -0.2,   -1.6,   -2.0,   -1.4,   -0.9,   -1.5,   -0.8,   -0.4,   -1.8,   -2.3,   -1.1,   -0.3,   -0.0,    0.7,    0.1,   -0.7,   -1.1,   -0.5,    0.6,    0.4,    0.6,    0.4,    0.2,   -0.8,   -2.2,   -4.1,   -6.0,   -7.3,   -4.2,   -5.1,   -3.6,   -3.4,   -2.4,   -5.4,    3.2,    3.6,    1.6,    3.9,    2.7,    2.8,    3.5,    3.4,    4.7,    5.1,    3.3,    2.3,   -0.5,    6.9,    1.9,    0.3,    1.3,    3.9,    0.9
2000/11/21 17:30,  999.0,   -5.2,   -2.5,   -2.1,   -0.3,    0.1,   -0.4,   -1.4,   -1.2,   -0.8,   -0.0,    0.1,    1.2,    1.8,    2.2,    2.1,    2.6,    2.9,    2.7,    2.3,    3.4,    4.0,    3.7,    3.5,    3.3,    3.1,    2.1,    1.2,   -0.7,   -2.2,   -2.6,   -2.6,   -3.1,   -3.0,   -0.5,    0.6,    1.4,    0.5,    0.9,    0.4,    0.3,    0.7,   -0.1,    1.5,    2.7,    3.2,    4.7,    4.1,    4.8,    4.3,    4.3,    5.0,    4.4,    8.0,    1.8,    2.0,    3.0,    3.3
2000/11/21 17:40,  999.0,   -4.9,   -4.1,   -3.4,   -2.8,   -3.4,   -4.1,   -4.5,   -4.7,   -4.1,   -2.0,   -0.4,    0.5,    1.5,    2.6,    3.6,    3.8,    3.5,    3.5,    2.7,    1.3,    1.2,    0.8,   -0.2,   -1.7,   -2.3,   -2.5,   -3.0,   -2.3,   -2.1,   -1.4,   -1.3,   -0.7,    0.2,    1.2,    2.1,    3.0,    5.7,    6.9,    5.7,    6.0,    6.7,    4.1,    5.2,    5.9,    3.3,    1.6,    2.9,    1.9,    3.6,    9.4,    6.1,    9.7,   17.5,  999.0,  999.0,  999.0,   14.0
2000/11/21 17:50,  999.0,   -5.2,   -3.5,   -2.7,   -3.8,   -3.7,   -3.6,   -2.6,   -2.7,   -2.5,   -1.7,   -0.9,   -0.7,   -0.6,   -0.2,    0.1,    0.7,    1.3,    1.8,    1.7,    1.7,    1.5,    1.4,    0.8,    0.4,    0.7,    1.5,    1.9,    1.9,    1.9,    2.2,    2.7,    2.8,    2.9,    3.3,    4.3,    4.8,    5.2,    5.8,    7.5,    7.6,    8.5,    8.0,    8.4,    7.6,    6.5,    5.9,    5.1,  999.0,  999.0,  999.0,  999.0,  999.0,  999.0,  999.0,  999.0,  999.0,  999.0
2000/11/21 18:00,  999.0,   -4.1,   -2.7,   -2.0,   -2.3,   -2.9,   -3.0,   -1.9,   -1.1,   -1.2,   -1.1,   -1.7,   -2.1,   -2.0,   -1.9,   -2.2,   -2.5,   -2.1,   -2.1,   -2.1,   -2.0,   -1.4,   -0.4,    0.7,    2.2,    4.1,    4.7,    5.0,    4.6,    5.0,    5.6,    5.1,    3.5,    3.5,    2.6,    1.3,    1.8,    2.9,    4.0,    5.0,    5.4,    6.3,    0.6,    2.3,    3.4,    4.9,    4.4,    5.9,  999.0,  999.0,  999.0,  999.0,  999.0,  999.0,  999.0,  999.0,  999.0,  999.0
2000/11/21 18:10,  999.0,  999.0,  999.0,  -13.2,   -1.2,   -4.6,   -3.0,   -2.5,   -1.3,    0.1,   -0.2,   -0.2,   -0.5,    0.2,   -0.2,   -0.2,   -0.3,    0.1,   -0.1,    0.4,    1.4,   -0.5,   -0.4,    4.4,    9.2,    6.4,    6.9,    6.9,   10.1,   13.9,   12.1,   13.8,   14.5,   10.9,    9.7,    4.5,   10.9,   13.3,    5.6,   21.0,  999.0,    6.4,    5.0,    6.0,    7.4,    8.5,   10.4,   15.0,  999.0,  999.0,   22.2,   18.9,   19.5,   13.2,   -4.7,  999.0,   20.7,  999.0
2000/11/21 18:20,  999.0,    2.9,    6.5,   -0.2,   -1.9,   -4.5,   -0.7,   -0.6,    0.1,    5.2,    5.8,    4.5,  999.0,    1.0,  999.0,  999.0,  999.0,  999.0,    0.6,    2.9,  999.0,  999.0,  999.0,  999.0,  999.0,  999.0,  999.0,  999.0,  999.0,  999.0,  999.0,  999.0,  999.0,  999.0,  999.0,  999.0,   -0.8,  999.0,  999.0,  999.0,  999.0,  999.0,  999.0,  999.0,  999.0,  999.0,   24.0,  999.0,  999.0,  999.0,  999.0,  999.0,  999.0,  999.0,  999.0,  999.0,  999.0,  999.0
2000/11/21 18:30,  999.0,  999.0,  999.0,   -6.2,   -3.4,    0.1,   -0.7,    1.4,   -1.6,   -1.6,   -0.3,   -0.6,   -0.6,   -0.4,  999.0,  999.0,  999.0,    2.2,    1.5,    1.2,  999.0,  999.0,  999.0,  999.0,  999.0,  999.0,  999.0,  999.0,  999.0,  999.0,  999.0,    4.8,    5.6,  999.0,  999.0,  999.0,  999.0,  999.0,  999.0,  999.0,  999.0,  999.0,  999.0,  999.0,  999.0,  999.0,   11.2,    2.9,  999.0,  999.0,  999.0,  999.0,  999.0,  999.0,  999.0,   41.4,  999.0,   42.2
2000/11/21 18:40,  999.0,  999.0,  999.0,   -4.9,   -4.7,   -3.0,   -0.0,    0.4,   -2.4,   -1.8,   -1.2,   -0.1,   -0.6,   -2.2,  999.0,  999.0,    2.0,    1.3,    0.5,    0.7,    1.8,  999.0,  999.0,  999.0,  999.0,  999.0,  999.0,    0.9,   -0.2,   -0.1,    0.9,    2.8,  999.0,  999.0,  999.0,   -8.3,  -10.3,  -10.2,  -11.3,  999.0,  999.0,  999.0,  999.0,  999.0,  -12.6,  -11.2,  -13.3,  999.0,  999.0,   -9.9,  999.0,  999.0,  999.0,  999.0,  999.0,  999.0,  999.0,   -7.9
2000/11/21 18:50,  999.0,   -1.7,   -9.8,   -3.5,   -3.8,    2.5,    2.5,    2.1,   -0.4,   -1.2,   -0.6,   -0.3,   -0.7,   -0.8,   -2.5,   -2.5,   -0.4,   -1.4,  999.0,  999.0,    0.8,    3.4,  999.0,  999.0,  999.0,  999.0,    4.7,    5.1,    4.9,    5.4,    5.7,  999.0,  999.0,  999.0,  999.0,  999.0,  999.0,  999.0,    1.9,  999.0,  999.0,  999.0,  999.0,  999.0,  999.0,  999.0,    4.2,    4.5,    4.6,    5.5,    6.9,  999.0,  999.0,  999.0,  999.0,  999.0,  999.0,  999.0
2000/11/21 19:00,  999.0,   -0.5,  999.0,   -3.8,    1.6,   -0.4,   -0.4,    1.3,    0.3,   -0.4,   -2.5,   -1.5,   -1.7,   -1.5,   -0.9,   -1.3,    0.7,  999.0,  999.0,  999.0,    2.0,    2.5,  999.0,  999.0,  999.0,  999.0,  999.0,  999.0,  999.0,  999.0,  999.0,  999.0,  999.0,  999.0,  999.0,  999.0,  999.0,  999.0,  999.0,  999.0,  999.0,  999.0,  999.0,  999.0,  999.0,  999.0,  999.0,  999.0,  999.0,  999.0,  999.0,  999.0,  999.0,  999.0,  999.0,  999.0,  999.0,  999.0
2000/11/21 19:10,  999.0,  999.0,  999.0,   -1.6,   -0.1,    4.7,    2.2,    7.0,    4.2,   -0.6,   -2.6,   -1.7,   -1.8,   -1.1,   -0.7,  999.0,  999.0,  999.0,  999.0,  999.0,  999.0,  999.0,  999.0,  999.0,  999.0,  999.0,  999.0,    8.3,    9.4,   10.0,   11.0,    5.0,  999.0,  999.0,  999.0,  999.0,  999.0,  999.0,  999.0,  999.0,  999.0,  999.0,  999.0,  999.0,  999.0,  999.0,  999.0,    9.6,   11.0,   11.5,  999.0,    7.8,  999.0,    9.0,    4.5,    4.9,    4.6,  999.0
2000/11/21 19:20,  999.0,   -3.0,  999.0,   -6.4,   -2.2,   -2.2,   -1.4,   -0.8,   -0.6,   -3.0,   -1.8,   -1.0,   -1.2,   -0.6,   -0.9,   -1.6,    3.4,    4.9,  999.0,  999.0,  999.0,   15.7,  999.0,  999.0,  999.0,  999.0,  999.0,  999.0,  999.0,  999.0,  999.0,  999.0,  999.0,  999.0,  999.0,  999.0,  999.0,  999.0,  999.0,  999.0,  999.0,  999.0,  999.0,  999.0,  999.0,  999.0,  999.0,  999.0,  999.0,  999.0,  999.0,  999.0,  999.0,  999.0,  999.0,  999.0,  999.0,  999.0
2000/11/21 19:30,  999.0,   -1.7,  999.0,  999.0,   -1.9,   -6.2,   -9.5,  -16.1,  -10.1,   -8.1,  -12.1,  -11.1,   -7.1,   -5.7,   -1.3,    2.7,    1.2,    1.0,    1.0,    2.1,    2.6,    4.3,    6.5,    7.5,    7.8,    8.6,   11.1,   13.8,   11.8,   13.8,   12.4,   14.7,   17.5,   12.6,   -4.0,   -0.7,   -0.9,    0.7,    2.9,  999.0,  999.0,  999.0,   13.8,   12.8,   11.2,   10.8,    6.6,    5.2,    3.0,    3.4,    5.1,    9.0,    4.6,    7.0,   13.3,   19.1,   14.1,   11.6
2000/11/21 19:40,  999.0,  -10.9,  -10.3,   -8.4,   -6.9,   -5.7,   -5.2,   -5.0,   -3.9,   -3.1,   -2.8,   -0.3,   -3.5,   -1.6,   -0.8,   -0.9,   -1.2,   -0.6,    0.3,    1.7,    2.3,    3.4,    3.8,    4.2,    3.7,    2.3,    3.2,    5.5,    4.9,    4.3,    4.3,    3.3,    1.2,    1.2,    0.4,    0.8,   -1.2,   -2.7,   -0.2,    0.8,    0.2,    1.5,    2.8,    4.4,    4.6,    4.3,    4.7,    4.4,    4.5,    5.9,  999.0,  999.0,    9.2,  999.0,  999.0,  999.0,  999.0,  999.0
2000/11/21 19:50,  999.0,   -8.6,   -8.7,   -9.8,   -9.9,   -6.5,   -1.5,   -4.6,   -1.7,   -1.1,   -1.4,   -0.7,   -0.2,    2.3,    2.3,    1.6,    1.6,   -0.9,   -0.3,  999.0,  999.0,  999.0,   21.0,   21.5,  999.0,   21.2,   22.9,   24.4,  999.0,  999.0,  999.0,    7.2,  999.0,  999.0,   12.2,   22.3,  999.0,  999.0,  999.0,   24.2,  999.0,  999.0,  999.0,  999.0,   27.3,   27.3,   27.0,   26.6,   14.7,   15.2,    7.8,  999.0,  999.0,  999.0,  999.0,  999.0,  999.0,  999.0
2000/11/21 20:00,  999.0,  999.0,   -5.0,   -1.6,   -0.6,   -4.5,   -4.4,   -1.5,    0.3,   -0.4,    0.6,   -0.7,   -0.0,  999.0,   -2.8,  999.0,  999.0,  999.0,  999.0,  999.0,  999.0,  999.0,  999.0,  999.0,  999.0,  999.0,    4.5,  999.0,  999.0,  999.0,  999.0,  999.0,  999.0,  999.0,  999.0,  999.0,  999.0,   11.6,  999.0,  999.0,  999.0,   10.8,  999.0,  999.0,  999.0,  999.0,  999.0,  999.0,  999.0,    9.5,  999.0,  999.0,  999.0,  999.0,  999.0,  999.0,  999.0,  999.0
2000/11/21 20:10,  999.0,  999.0,  999.0,   -8.0,   -4.4,   -3.8,   -4.2,   -0.5,    0.7,   -1.0,   -0.3,   -0.3,   -0.1,  999.0,    0.5,    0.1,  999.0,  999.0,  999.0,   -5.2,   -9.5,  999.0,  999.0,  999.0,   -3.4,   -7.2,  999.0,  999.0,   -4.7,  999.0,   -5.1,  999.0,  999.0,  999.0,  999.0,  999.0,  999.0,   13.0,  999.0,  999.0,  999.0,    9.6,    9.1,  999.0,  999.0,    6.9,  999.0,  999.0,  999.0,  999.0,    3.5,    3.2,    1.7,    0.9,    0.4,    0.8,    0.1,    0.3
2000/11/21 20:20,  999.0,  999.0,  999.0,   -3.4,   -4.3,   -2.0,   -2.6,   -3.5,   -0.2,   -1.2,   -0.6,   -0.6,   -1.6,  999.0,   -0.8,  999.0,  999.0,  999.0,  999.0,  999.0,  999.0,  999.0,  999.0,  999.0,  999.0,  999.0,   -2.1,  999.0,   -4.6,  999.0,  999.0,  999.0,   -3.9,  999.0,  999.0,  999.0,  999.0,    6.8,  999.0,  999.0,  999.0,    4.7,    2.9,    3.5,    3.7,    1.0,    2.5,  999.0,    0.1,    0.9,    0.5,    0.6,    0.7,    1.6,    0.8,    0.4,    1.0,    0.7
2000/11/21 20:30,  999.0,   -2.5,  -12.1,   -4.9,   -1.8,   -3.0,   -5.0,   -2.8,   -3.0,    0.8,   -0.1,   -0.4,    0.1,    0.5,  999.0,  999.0,  999.0,  999.0,    7.5,   15.6,   16.4,  999.0,  999.0,   12.0,  999.0,  999.0,  999.0,   17.7,   17.2,  999.0,  999.0,   10.6,   13.2,  999.0,    9.3,    8.9,    6.9,    7.4,    8.2,    5.9,    5.1,    4.3,    3.6,    3.6,    3.0,    1.7,    0.9,    0.8,    0.8,    1.1,    0.6,    0.2,    1.0,    0.9,    1.0,    1.1,    0.7,    0.9
2000/11/21 20:40,  999.0,   -7.5,   -8.3,   -6.2,   -2.5,   -4.5,   -4.1,   -2.1,    0.3,   -0.3,   -0.6,    0.6,    0.6,   -0.2,  999.0,  999.0,  999.0,  999.0,  999.0,  -21.7,  999.0,  999.0,  -24.1,  999.0,  -25.7,  -26.2,  -26.5,  999.0,   -1.8,   -9.2,    3.8,    9.6,  -11.0,    8.0,    6.8,  -14.3,    5.4,    6.6,    4.7,    4.7,    3.3,    2.0,    2.5,    0.8,    1.1,    0.4,  999.0,    0.5,    0.3,    0.2,  999.0,    1.1,  999.0,    0.4,    1.1,    0.8,    0.8,   10.9
2000/11/21 20:50,  999.0,  999.0,  999.0,  999.0,   -1.2,  999.0,    7.4,    0.6,    1.0,   -0.1,   -0.3,   -0.9,    2.4,  999.0,   -0.4,  999.0,    0.2,  999.0,  999.0,    8.7,    8.6,  999.0,  999.0,    3.7,  999.0,    2.3,  999.0,   13.5,    9.3,   13.9,   11.9,    9.8,   10.2,    8.4,    8.0,    3.8,    5.3,    3.7,    5.9,    2.1,  999.0,    1.7,    0.8,    0.9,    0.3,    0.3,    0.7,    0.3,    0.3,    1.6,    0.1,    0.7,    0.5,    1.3,    0.8,    0.8,    1.3,    0.8
2000/11/21 21:00,  999.0,  999.0,  -15.9,   -3.4,   -7.3,   -0.2,   -0.5,  999.0,    1.8,   -0.1,   -4.4,    0.2,  999.0,  999.0,    2.1,    4.0,    5.6,  999.0,  999.0,  999.0,  999.0,  999.0,  999.0,  999.0,  999.0,  999.0,  999.0,   11.0,    9.2,    3.2,    9.4,    7.9,    4.9,    3.6,    2.9,    4.0,    1.8,    4.2,    2.2,    1.4,    0.1,  999.0,    0.5,    0.3,    0.7,    0.7,    1.0,    0.5,    0.9,    0.8,    0.8,    0.7,  999.0,    0.1,    0.3,    0.5,  999.0,    0.4
2000/11/21 21:10,  999.0,  999.0,  -13.9,  -10.2,   -5.4,   -3.8,   -5.0,   -2.6,   -1.0,   -2.0,   -1.7,   -0.4,    8.0,    0.1,    9.4,    5.1,  999.0,  999.0,  999.0,   -5.8,   -6.7,   -8.2,    2.7,  999.0,  999.0,    5.1,    4.1,    4.1,  999.0,    2.1,    1.9,  999.0,    0.6,    1.2,    1.2,    0.5,    1.5,    1.3,  999.0,   -2.2,    1.6,    0.6,    0.8,    1.2,    0.6,    1.0,    0.6,   -0.2,    0.7,    0.0,    1.2,    0.6,    1.1,    0.9,    0.9,    0.4,    0.5,    1.1
2000/11/21 21:20,  999.0,  999.0,   -5.7,   -6.7,   -5.0,   -8.0,   -4.7,   -1.5,   -2.2,   -1.5,    0.7,    1.0,    0.3,    0.1,   -0.4,   -0.4,  999.0,  999.0,  999.0,   -4.1,  999.0,  999.0,  999.0,   10.1,    9.0,    7.6,    7.4,    6.1,    4.7,    2.8,    2.6,  999.0,    1.0,    0.9,    1.0,    0.9,    1.5,    1.2,    0.9,    0.8,    0.4,    0.2,  999.0,    0.9,    0.6,    0.6,    0.8,    0.6,    0.9,    0.8,    1.1,    1.8,    0.4,    0.6,    0.6,    0.2,  999.0,  999.0
2000/11/21 21:30,  999.0,  999.0,    2.9,   -1.6,   -1.1,   -0.9,    1.6,   -1.8,   -1.6,    0.4,  999.0,    1.5,    2.4,   15.7,   15.2,  999.0,    6.4,  999.0,  999.0,  999.0,  -14.0,  -11.8,  -14.0,  999.0,    9.5,   10.2,   -5.3,   -3.2,   -7.2,    3.3,    2.4,    0.9,    1.9,    0.6,    1.2,  999.0,    0.8,    1.3,    0.9,    0.5,    1.4,    1.2,  999.0,    0.9,    0.5,    0.4,    0.5,    0.5,  999.0,  999.0,    0.7,  999.0,    0.6,  999.0,  999.0,    1.6,    1.0,  999.0
2000/11/21 21:40,  999.0,  999.0,   -2.5,   -2.5,  999.0,  999.0,  999.0,    2.2,  999.0,  999.0,  999.0,  999.0,  999.0,  999.0,  999.0,   -3.7,   -5.0,   -3.4,  -12.4,   -9.5,  -11.0,  999.0,   -9.0,  999.0,  999.0,  999.0,  999.0,  999.0,  999.0,  999.0,  999.0,  999.0,  999.0,  999.0,   -7.7,  999.0,  999.0,    2.8,    2.7,    2.2,  999.0,    1.4,  999.0,  999.0,  999.0,  999.0,  999.0,  999.0,  999.0,  999.0,  999.0,    0.4,    1.6,  999.0,    1.3,    1.1,    1.3,  999.0
2000/11/21 21:50,  999.0,   -4.2,   -2.5,   -0.7,   -0.6,  999.0,   -3.5,    1.5,   -0.4,  999.0,   -0.2,    3.5,   -1.4,   -2.1,  999.0,  999.0,   -1.2,  999.0,  999.0,  999.0,  999.0,  999.0,  999.0,  999.0,  999.0,  999.0,  999.0,    3.6,  999.0,   -5.9,    4.0,  999.0,   -2.1,    0.8,    0.8,    0.6,    0.7,    0.4,    0.9,    0.8,    1.3,    0.5,    1.4,    0.9,    1.0,    1.0,    0.7,    1.3,    0.6,    1.0,    0.9,    0.4,    0.2,  999.0,    1.0,    0.6,    0.5,    1.0
2000/11/21 22:00,  999.0,   -9.9,   -5.8,   -1.0,   -0.7,   -0.4,    7.3,  999.0,    2.8,   -0.1,    0.2,    4.2,    2.9,   -1.2,    3.0,    0.9,  999.0,  999.0,  999.0,    5.1,  999.0,  999.0,   -0.2,   -1.1,  999.0,  999.0,  999.0,    2.2,  -10.1,    4.1,   -1.1,    6.0,  999.0,    0.5,    0.1,    0.3,    0.6,    0.4,    0.5,    0.4,    0.8,    0.9,    0.7,    1.3,    0.6,    1.0,    0.6,    0.7,    1.2,  999.0,    0.9,    0.7,    0.7,   -0.0,    0.9,    0.5,    0.6,   -0.2
2000/11/21 22:10,  999.0,  999.0,   -4.9,   -1.9,    0.3,    0.1,    1.7,    1.3,    1.1,    3.3,    2.0,  999.0,    0.5,    2.1,  999.0,    2.0,    6.9,  999.0,    4.2,  999.0,   -1.6,  999.0,   -3.1,  999.0,  999.0,   -1.2,  -12.7,  999.0,  999.0,  999.0,   -0.2,    0.4,    0.5,    0.9,    0.9,    0.8,    0.4,    0.5,    0.7,    0.7,    1.1,  999.0,  999.0,    2.3,    1.0,    4.0,  999.0,    9.5,    0.5,    2.8,    0.3,    2.6,  999.0,    0.2,    0.8,    0.7,   -0.6,    0.9
2000/11/21 22:20,  999.0,    3.3,    2.9,    3.7,   -0.4,   -0.9,    0.5,    1.1,   -0.1,    0.3,   -2.0,    6.2,    1.2,    3.0,    6.0,    3.5,  999.0,   10.6,    0.5,    1.3,  999.0,  999.0,  999.0,  999.0,  999.0,  999.0,  999.0,  999.0,  999.0,  999.0,    4.0,    1.6,    0.8,    0.9,    0.5,    0.8,    0.8,    0.9,    0.5,    0.3,    0.9,    0.3,    0.7,    1.0,    0.6,    0.8,    1.1,    0.7,    0.5,    0.2,   -0.2,    1.4,    0.8,    0.6,  999.0,    0.9,    1.2,    0.6
2000/11/21 22:30,  999.0,   -9.1,   -2.3,   -2.1,    1.7,    0.2,    0.3,    0.1,    1.2,    0.2,  999.0,  999.0,  999.0,   12.7,   20.3,  999.0,    0.1,    0.4,  999.0,  999.0,    0.1,  999.0,   -6.0,   -7.8,   -9.7,  999.0,  999.0,  999.0,  -15.2,  -15.7,  -16.5,   -8.0,  999.0,    1.5,  999.0,    1.2,    0.7,    1.0,  999.0,  999.0,    0.3,  999.0,   -0.1,    0.7,  999.0,    0.9,  999.0,  999.0,    2.2,    1.1,  999.0,    1.1,    0.5,    0.7,    0.3,  999.0,    0.7,  999.0
2000/11/21 22:40,  999.0,  999.0,  999.0,  999.0,    1.2,    0.6,   -0.7,    1.2,    2.6,   -0.4,   -1.6,  999.0,    4.3,    6.5,   10.1,   10.1,   21.0,    5.0,    6.1,  999.0,  999.0,  999.0,   19.8,   20.9,   13.6,    3.9,   10.4,  999.0,    5.1,    6.8,    3.9,    3.4,    0.7,    1.5,    1.3,    0.7,    0.3,    0.9,    0.6,    0.2,    0.2,    1.0,  999.0,    0.5,    0.9,    0.7,    0.8,    0.8,  999.0,    1.2,    1.1,    0.2,    0.6,    0.0,    0.8,    1.0,    0.6,    0.9
2000/11/21 22:50,  999.0,   -0.9,   -2.2,   -1.6,   -3.0,    1.8,    0.4,   -0.4,   -2.6,   -1.9,    0.4,   -0.3,    0.6,    5.6,    8.2,    9.1,   -1.3,  999.0,  999.0,  999.0,  999.0,    0.3,  999.0,  999.0,   -5.9,    0.1,    2.9,    2.7,    0.4,    0.2,    0.7,    1.2,    1.0,    0.7,    0.5,    1.1,    0.8,  999.0,    0.5,    1.1,    0.5,    0.6,    1.0,    0.6,    0.6,    0.9,    0.9,    0.8,    0.9,    0.8,    0.7,    0.7,    0.6,    1.5,    0.6,    0.5,    0.8,    0.8
2000/11/21 23:00,  999.0,   -4.0,   -5.9,   -1.3,   -2.3,    2.5,    1.9,    5.0,    2.4,    0.6,    3.6,  999.0,    7.8,    7.5,  999.0,  999.0,  999.0,  999.0,  999.0,    9.7,    9.1,  999.0,    8.5,    8.2,    2.2,    0.6,    1.9,    1.2,    1.6,    1.1,   -5.3,    0.3,    1.0,    0.5,   -0.3,    0.4,    0.9,    0.7,  999.0,    1.0,    1.2,    1.0,    0.7,    0.7,    0.9,  999.0,    0.8,    0.3,    0.7,    0.7,    0.5,  999.0,    0.7,    0.8,    0.3,    1.4,    0.4,    0.4
2000/11/21 23:10,  999.0,  999.0,    1.8,    4.0,    3.8,    0.8,    1.9,    1.8,    1.6,    0.5,    1.6,    1.9,    7.2,    6.9,  999.0,    1.4,   13.3,  999.0,  999.0,  999.0,  999.0,  999.0,    8.0,    5.7,    4.2,    2.7,    0.7,    0.4,    0.0,    0.7,    1.3,    1.1,    1.6,    1.0,    0.4,    0.8,    0.4,    0.6,    1.0,    0.7,    1.3,    1.0,    1.1,    0.8,    0.8,  999.0,    1.2,    0.9,    0.7,    1.0,    0.4,    0.1,    1.3,    0.9,    0.7,    0.5,    0.8,  999.0
2000/11/21 23:20,  999.0,  999.0,    0.6,    0.5,    1.8,    1.3,  999.0,    2.1,   -6.4,  999.0,   -0.3,  999.0,    6.7,    6.7,    5.1,   15.0,    7.4,    6.3,   10.9,    9.6,    7.4,  999.0,    7.0,    5.5,    2.4,    1.2,    2.0,  999.0,    0.6,    0.8,    1.3,    0.8,  999.0,    0.7,    0.9,    1.2,    0.7,    0.1,    0.7,    0.7,    0.6,  999.0,    0.9,    1.2,    0.2,    0.3,  999.0,    0.3,    0.9,    0.6,    0.5,    1.0,    1.2,    6.8,    1.2,  999.0,    0.4,    0.6
2000/11/21 23:30,  999.0,  999.0,   -1.5,    4.3,    2.9,    0.1,    1.9,    0.9,   -0.0,   -0.1,   -1.8,  999.0,    4.8,    5.9,    9.2,    7.7,  999.0,  999.0,   -4.8,   11.5,    9.4,    8.5,  999.0,    2.2,  999.0,    2.0,    0.6,    0.7,    1.1,    0.6,  999.0,    0.9,    0.5,    0.4,    0.8,    0.8,    1.1,    0.4,    0.7,    0.5,    0.2,    0.5,    0.4,    0.7,    1.2,    0.8,  999.0,    1.0,    1.0,    0.9,    0.7,    0.2,    0.7,    0.3,    0.8,    0.7,    0.4,    0.8
2000/11/21 23:40,  999.0,    6.7,   -1.8,   -0.1,    0.1,    0.0,   10.2,    3.1,  999.0,   10.8,  999.0,  999.0,  999.0,   15.6,   13.9,   20.7,    5.8,  999.0,   14.1,   12.5,  999.0,    6.7,    5.3,  -41.7,    0.2,   -0.2,    0.6,  999.0,  999.0,  999.0,  999.0,  999.0,    0.6,  999.0,  -20.5,    0.0,  -20.4,    0.7,    1.0,    0.8,  -20.3,  -13.7,  999.0,    1.0,    1.3,    1.0,  999.0,    0.9,    0.6,    1.0,    1.0,    0.8,  999.0,  999.0,    2.0,  999.0,    1.2,  999.0
2000/11/21 23:50,  999.0,  999.0,   -0.4,    1.8,   -0.9,   -1.2,   -3.8,   -1.7,    1.9,    3.2,   -0.5,    0.5,    0.1,  999.0,    4.9,    3.8,    4.1,  999.0,   -3.2,   -2.8,    0.9,    0.9,    0.0,    0.5,   -5.0,    0.5,  999.0,    1.4,    0.9,    0.4,    1.1,    0.8,  999.0,  999.0,    1.0,    0.8,    0.5,    1.2,    1.4,    1.2,    0.7,    0.2,    0.3,    0.9,    0.1,    0.8,    0.9,    1.2,    1.3,    0.7,    0.1,    0.8,    0.3,    1.0,    0.9,    0.1,    0.9,  999.0
